COMPLETED DISPATCHED CALLS FOR SERVICE

Welcome to the Jacksonville Sheriff’s Office Completed Dispatched Calls for Service webpage. This page displays calls for service made to the Jacksonville Sheriff's Office that have recently been completed. The data on this page is refreshed automatically.

This information is not intended to be used as official crime data. This program does not provide information about all crimes, and excludes specific incidents such as sexual assaults and child abuse.

Disclaimer: The Jacksonville Sheriff's Office makes every effort to produce and publish current and accurate information. No warranties, expressed or implied, are provided for the data herein, its use, or its interpretation. The services provided are for informational purposes only and should not be relied on for any type of legal action.

Last refreshed 10/21 03:54:08

Incident # Dispatched Block Address Signal Call Description  
181021725987 10-21 03:12 BEACH BLVD AND SUNI PINES BLVD 1050 TRAFFIC STOP
181021725980 10-21 03:06 3100 PHILIPS HWY 20 PROWLER
181021725975 10-21 03:03 DIGNAN ST AND THOMPSON ST 1050 TRAFFIC STOP
181021725947 10-21 03:00 5500 N PEARL ST 1066 CANCEL
181021725970 10-21 02:58 CLEVELAND RD AND W EDGEWOOD AVE 1050 TRAFFIC STOP
181021725952 10-21 02:53 3800 S UNIVERSITY BLVD 1066 CANCEL
181021725945 10-21 02:51 1000 MACKINAW ST 63 DISPUTE
181021725914 10-21 02:51 8600 BLANDING BLVD 2 22 DOMESTIC DISTURBANCE
181021725962 10-21 02:51 6200 PHILIPS HWY 1050 TRAFFIC STOP
181021725959 10-21 02:49 S ST JOHNS BLUFF RD AND BEACH BLVD 13 SUSPICIOUS PERSON
181021725958 10-21 02:49 LEM TURNER RD AND N I95 EXPWY 1050 TRAFFIC STOP
181021725956 10-21 02:48 3000 TURTON AVE 63 DISPUTE
181021725953 10-21 02:41 LAKE FOREST BLVD AND BRANDYWINE ST 13 SUSPICIOUS PERSON
181021725921 10-21 02:40 700 S CHAFFEE RD 63 DISPUTE
181021725905 10-21 02:39 8400 103RD ST 4 AUTO CRASH
181021725944 10-21 02:38 5200 KEN RD 63 DISPUTE
181021725943 10-21 02:37 7200 POWERS AVE 63 DISPUTE
181021725922 10-21 02:37 BEACH BLVD AND SOUTHSIDE BLVD 22 DOMESTIC
181021725940 10-21 02:31 SAN JOSE BLVD AND SUNBEAM RD 12 RECKLESS DRIVER
181021725931 10-21 02:30 11300 BEACH BLVD 2 63 DISPUTE IMPAIRED/INTOXICATED
181021725937 10-21 02:28 SOUTEL DR AND RIBAULT AVE 1050 TRAFFIC STOP
181021725935 10-21 02:28 BEACH BLVD AND ANNISTON RD 1050 TRAFFIC STOP
181021725933 10-21 02:26 BAYMEADOWS RD AND PROMINENCE PKWY 1050 TRAFFIC STOP
181021725917 10-21 02:18 9500 E WATERSHED DR 1066 CANCEL
181021725918 10-21 02:18 16000 SHELLCRACKER RD 64 NOISE COMPLAINT
181021725886 10-21 02:18 3600 RING LN 64 NOISE COMPLAINT
181021725872 10-21 02:13 8300 GALVESTON AVE 64 NOISE COMPLAINT
181021725915 10-21 02:12 POST/STOCKTON 1050 TRAFFIC STOP
181021725875 10-21 02:09 9500 BAYMEADOWS RD 1066 CANCEL
181021725911 10-21 02:08 7100 POWERS AVE 38 TRAFFIC ASSIGNMENT
181021725840 10-21 02:08 12500 KNOTAH RD 63 DISPUTE
181021725906 10-21 02:08 SMALLEY RD AND SPORTSMAN CLUB RD 61 FIGHT
181021725904 10-21 02:01 5700 MCLEOD AVE 10 VEHICLE THEFT
181021725902 10-21 02:00 LEM TURNER RD AND LILA ST 1050 TRAFFIC STOP
181021725901 10-21 01:59 BEACH BLVD AND LUCENA LN 1050 TRAFFIC STOP
181021725899 10-21 01:58 S I95 EXPWY AND EMERSON ST 1050 TRAFFIC STOP
181021725882 10-21 01:58 5000 SAN JOSE BLVD 64 NOISE COMPLAINT
181021725863 10-21 01:57 1000 OAK ST 14C VANDALISM CONVEYANCE
181021725898 10-21 01:56 BEACH BLVD AND S ST JOHNS BLUFF RD 1050 TRAFFIC STOP
181021725894 10-21 01:56 W 29TH ST AND STUART ST 0 63 ARMED DISPUTE
181021725889 10-21 01:52 8200 PHILIPS HWY 63 DISPUTE
181021725888 10-21 01:51 2400 JAMMES RD 26C CARDIAC AED
181021725846 10-21 01:49 1900 RIVER ROCK RD 13 SUSPICIOUS PERSON
181021725876 10-21 01:49 1300 MONTICELLO RD 64 NOISE COMPLAINT
181021725885 10-21 01:46 NEW KINGS RD AND REDPOLL AVE 1050 TRAFFIC STOP
181021725884 10-21 01:45 200 E 1ST ST 9 THEFT
181021725843 10-21 01:44 100 E 16TH ST 64 NOISE COMPLAINT
181021725816 10-21 01:44 1400 GREYFRIAR LN 13 SUSPICIOUS PERSON
181021725877 10-21 01:42 2200 PEACH DR 60 SUICIDE OR ATTEMPT
181021725879 10-21 01:41 BLANDING/COLLINS 1050 TRAFFIC STOP
181021725878 10-21 01:40 JAMMES/HARLOW 1050 TRAFFIC STOP
181021725797 10-21 01:40 3500 BOUGAINVILLEA ST 21R BURGLARY RESIDENCE
181021725873 10-21 01:37 10900 BEACH BLVD 13 SUSPICIOUS PERSON
181021725870 10-21 01:36 4100 ADIROLF RD 57 PERSON CALLING FOR HELP
181021725871 10-21 01:35 BEACH BLVD AND ANNISTON RD 1050 TRAFFIC STOP
181021725859 10-21 01:34 8200 N DAMES POINT CROSSING BLVD 63 DISPUTE
181021725822 10-21 01:34 3500 S ST JOHNS BLUFF RD 64 NOISE COMPLAINT
181021725867 10-21 01:31 E 25TH ST AND BUCKMAN ST 60 SUICIDE OR ATTEMPT
181021725779 10-21 01:29 4600 CONFEDERATE OAKS DR 0 63 ARMED DISPUTE
181021725861 10-21 01:29 3100 PARENTAL HOME RD 5361 FIGHT INVOLVING INJURY
181021725862 10-21 01:28 POWERS AVE AND TOLEDO RD 1050 TRAFFIC STOP
181021725858 10-21 01:27 100 EB/HAMMON 96 ASSIST MOTORIST
181021725838 10-21 01:27 1500 S LANE AVE 13 SUSPICIOUS PERSON
181021725803 10-21 01:26 300 NIXON ST 63 DISPUTE
181021725855 10-21 01:25 NORMANDY/LENOX 1050 TRAFFIC STOP
181021725854 10-21 01:24 MONCRIEF RD AND GOLFAIR BLVD 1050 TRAFFIC STOP
181021725852 10-21 01:23 103RD/HILLMAN 1050 TRAFFIC STOP
181021725851 10-21 01:23 8200 PHILIPS HWY 2 IMPAIRED/INTOXICATED
181021725793 10-21 01:20 8000 ATLANTIC BLVD 63 DISPUTE
181021725844 10-21 01:20 CHAFFEE/I10 1050 TRAFFIC STOP
181021725835 10-21 01:19 8600 BEACH BLVD 13 SUSPICIOUS PERSON
181021725834 10-21 01:16 2600 OAK SUMMIT DR 64 NOISE COMPLAINT
181021725836 10-21 01:15 500 E ADAMS ST 1066 CANCEL
181021725731 10-21 01:15 5800 NORMANDY BLVD 4 AUTO CRASH
181021725792 10-21 01:15 300 CARAVAN CIR 22 DOMESTIC
181021725759 10-21 01:14 400 CENTURY 21 DR 63 DISPUTE
181021725825 10-21 01:14 1000 E 24TH ST 76 ASSIST OTHER AGENCY
181021725734 10-21 01:14 600 E 28TH ST 63 DISPUTE
181021725828 10-21 01:13 6000 FT CAROLINE RD 63 DISPUTE
181021725804 10-21 01:13 200 E SONDRA COVE TRL 64 NOISE COMPLAINT
181021725757 10-21 01:13 12000 N COBBLEWOOD LN 13 SUSPICIOUS PERSON
181021725826 10-21 01:12 2000 N MARKET ST 2 63 DISPUTE IMPAIRED/INTOXICATED
181021725749 10-21 01:12 2800 BARRETT RD 22 DOMESTIC
181021725830 10-21 01:11 W 21ST ST AND BOULEVARD 13 SUSPICIOUS PERSON
181021725829 10-21 01:10 7100 WILSON 1050 TRAFFIC STOP
181021725823 10-21 01:10 9500 SAN JOSE BLVD 22 DOMESTIC
181021725827 10-21 01:09 12100 ARMSDALE RD 13 SUSPICIOUS PERSON
181021725712 10-21 01:07 6900 MORSE AVE 63 DISPUTE
181021725806 10-21 01:05 8200 PHILIPS HWY 2 63 DISPUTE IMPAIRED/INTOXICATED
181021725821 10-21 01:05 KINGS RD AND N CANAL ST 1050 TRAFFIC STOP
181021725811 10-21 01:03 7900 W NARANJA DR 22 DOMESTIC
181021725736 10-21 01:03 N BOWLAN ST AND BERRY AVE 6388 DISPUTE WITH ASSAULT
181021725817 10-21 01:03 DUNN AVE AND BISCAYNE BLVD 1050 TRAFFIC STOP
181021725809 10-21 01:03 5900 MONCRIEF RD 0 63 ARMED DISPUTE
181021725815 10-21 01:03 1200 UNIVERSITY 1050 TRAFFIC STOP
181021725814 10-21 01:01 S OLD KINGS RD AND POWERS AVE 1050 TRAFFIC STOP
181021725780 10-21 00:59 9300 OLD PLANK RD 13 SUSPICIOUS PERSON
181021725808 10-21 00:57 MONCRIEF RD AND W EDGEWOOD AVE 1050 TRAFFIC STOP
181021725807 10-21 00:57 NORMANDY/VERNA 1050 TRAFFIC STOP
181021725760 10-21 00:57 2000 N MARKET ST 2 63 DISPUTE IMPAIRED/INTOXICATED
181021725802 10-21 00:57 2600 OAK SUMMIT DR 64 NOISE COMPLAINT
181021725790 10-21 00:54 11200 OLD ST AUGUSTINE RD 61 FIGHT
181021725789 10-21 00:53 LOWELL AVE AND MACKINAW ST 13 SUSPICIOUS PERSON
181021725799 10-21 00:52 9400 REG SQ BLVD 1050 TRAFFIC STOP
181021725719 10-21 00:52 7800 E BAYMEADOWS RD 14C VANDALISM CONVEYANCE
181021725796 10-21 00:52 REGENCY SQUARE BLVD AND MILL CREEK RD 11 ABANDONED VEHICLE
181021725783 10-21 00:50 N ARLINGTON RD AND LILLIAN RD 80 PROSTITUTION (ONLY)
181021725795 10-21 00:49 200 SB/103RD 1050 TRAFFIC STOP
181021725794 10-21 00:49 CENTURY/COCOA 1050 TRAFFIC STOP
181021725781 10-21 00:49 2000 HODGES BLVD 3388 DISCHARGING FIREARM AT PERSON
181021725787 10-21 00:48 7100 POWERS AVE 1050 TRAFFIC STOP
181021725785 10-21 00:47 THOMPSON ST AND FITZGERALD ST 1050 TRAFFIC STOP
181021725754 10-21 00:47 1000 PARK ST 63 DISPUTE
181021725782 10-21 00:45 HART EXPWY AND S UNIVERSITY BLVD 1050 TRAFFIC STOP
181021725750 10-21 00:43 1300 MONTICELLO RD 64 NOISE COMPLAINT
181021725702 10-21 00:42 4500 E COBBLEFIELD CIR 64 NOISE COMPLAINT
181021725771 10-21 00:42 5400 CATSPAW LN 64 NOISE COMPLAINT
181021725778 10-21 00:42 900 KING ST 86 LOST PROPERTY
181021725776 10-21 00:42 PRIOLEOU ST AND W 6TH ST 1050 TRAFFIC STOP
181021725775 10-21 00:41 5700 LENOX 1050 TRAFFIC STOP
181021725726 10-21 00:38 6500 NORMANDY BLVD 63 DISPUTE
181021725769 10-21 00:38 2900 MANDARIN MEADOWS DR 63 DISPUTE
181021725718 10-21 00:38 4300 CONFEDERATE POINT RD 64 NOISE COMPLAINT
181021725751 10-21 00:37 8100 103RD ST 19 ANIMAL INVESTIGATION
181021725768 10-21 00:36 3300 N ARDISIA RD 1050 TRAFFIC STOP
181021725766 10-21 00:36 3900 BAYMEADOWS RD 37 UNVERIFIED 911 CALL
181021725765 10-21 00:35 HODGES BLVD AND J TURNER BUTLER BLVD 1050 TRAFFIC STOP
181020725676 10-21 00:34 15300 SPOTTED STALLION TRL 64 NOISE COMPLAINT
181020725687 10-21 00:34 7000 LOVES DR 63 DISPUTE
181021725763 10-21 00:33 LENOX AVE AND SHEARER AVE 13 SUSPICIOUS PERSON
181021725761 10-21 00:33 7000 SALISBURY RD 76 ASSIST OTHER AGENCY
181021725723 10-21 00:33 3800 S UNIVERSITY BLVD 64 NOISE COMPLAINT
181021725737 10-21 00:32 8800 BEACH BLVD 63 DISPUTE
181021725758 10-21 00:32 3500 COLLEGE ST 76 ASSIST OTHER AGENCY
181021725755 10-21 00:31 ARLINGTON RD/LONE STAR 1050 TRAFFIC STOP
181021725753 10-21 00:29 7100 S OLD KINGS RD 1050 TRAFFIC STOP
181021725747 10-21 00:28 13100 ATLANTIC BLVD 3388 DISCHARGING FIREARM AT PERSON
181021725748 10-21 00:27 8/JEFFERSON 1050 TRAFFIC STOP
181021725746 10-21 00:27 7800 GORDEAN RD 22 DOMESTIC
181021725741 10-21 00:26 500 CHAFFEE POINT BLVD 63 DISPUTE
181020725686 10-21 00:25 11800 ALDEN RD 64 NOISE COMPLAINT
181020725661 10-21 00:25 11600 WYNNFIELD LAKES CIR 64 NOISE COMPLAINT
181021725745 10-21 00:25 LENOX AVE AND S MCDUFF AVE 13 SUSPICIOUS PERSON
181020725683 10-21 00:24 LONE STAR RD AND N BROOKVIEW DR 64 NOISE COMPLAINT
181021725735 10-21 00:24 1400 E STARWAN RD 64 NOISE COMPLAINT
181021725717 10-21 00:23 12600 N WINDY WILLOWS DR 63 DISPUTE
181021725713 10-21 00:23 5400 LIBERTY STREET BLVD 64 NOISE COMPLAINT
181020725632 10-21 00:23 7900 N PEARL ST 13 SUSPICIOUS PERSON
181021725738 10-21 00:21 1000 DUNN AVE 1050 TRAFFIC STOP
181021725733 10-21 00:19 W 17TH ST AND N CANAL ST 1050 TRAFFIC STOP
181021725704 10-21 00:18 2700 BARTLEY CIR 10 VEHICLE THEFT
181021725730 10-21 00:17 SAN JOSE BLVD AND ORANGE PICKER RD 1050 TRAFFIC STOP
181021725709 10-21 00:16 800 S LANE AVE 61 FIGHT
181020725654 10-21 00:16 3000 N MAIN ST 4 63 CRASH INVOLVING DISPUTE
181021725727 10-21 00:15 2600 FORBES ST 2 63 DISPUTE IMPAIRED/INTOXICATED
181021725724 10-21 00:13 TOLEDO RD AND POWERS AVE 1050 TRAFFIC STOP
181020725680 10-21 00:13 5700 GREEN PALM LN 22 DOMESTIC
181021725722 10-21 00:12 500 S LANE AVE 1050 TRAFFIC STOP
181021725691 10-21 00:12 1100 CALIENTE DR 64 NOISE COMPLAINT
181021725694 10-21 00:12 1000 N ARLINGTON RD 13 SUSPICIOUS PERSON
181021725716 10-21 00:08 S MCDUFF AVE AND POST ST 1050 TRAFFIC STOP
181021725708 10-21 00:08 700 N MAIN ST 61 FIGHT
181021725715 10-21 00:08 GOLFAIR BLVD AND STUART ST 1050 TRAFFIC STOP
181021725711 10-21 00:08 3500 S UNIVERSITY BLVD 4 53 TRAFFIC CRASH PERSON INJURED
181021725714 10-21 00:08 S LANE AVE AND WILEY RD 13 SUSPICIOUS PERSON
181021725710 10-21 00:06 700 W 16TH ST 1050 TRAFFIC STOP
181021725703 10-21 00:05 9800 BAYMEADOWS RD 5388 ASSAULT INVOLVING INJURY
181021725707 10-21 00:04 4200 DUNN 1050 TRAFFIC STOP
181021725705 10-21 00:04 KINGS RD AND DIVISION ST 1050 TRAFFIC STOP
181021725700 10-21 00:03 W EDGEWOOD AVE AND LAKE PARK DR 1050 TRAFFIC STOP
181021725698 10-21 00:03 2400 CINNAMON SPRINGS TRL 13 SUSPICIOUS PERSON
181021725699 10-21 00:03 TYLDALE/SUDBURY 64 NOISE COMPLAINT
181020725651 10-21 00:02 13900 OLD ST AUGUSTINE RD 63 DISPUTE
181021725690 10-21 00:02 5200 NORWOOD AVE 63 DISPUTE
181021725697 10-21 00:01 BEACH/CENTRAL PKWY 1050 TRAFFIC STOP
181021725693 10-21 00:00 1000 N EDGEWOOD AVE 1050 TRAFFIC STOP
181021725692 10-21 00:00 7200 BLANDING 1050 TRAFFIC STOP
181020725688 10-20 23:57 BEACH/WASHBURN RD 1050 TRAFFIC STOP
181020725653 10-20 23:55 8800 ATLANTIC BLVD 9 THEFT
181020725685 10-20 23:55 CASSAT/SHIRLEY 1050 TRAFFIC STOP
181020725682 10-20 23:54 MARGARET/MYRA 1050 TRAFFIC STOP
181020725681 10-20 23:54 N EDGEWOOD AVE AND KINGSTON ST 1050 TRAFFIC STOP
181020725577 10-20 23:53 7300 MELVIN RD 63 DISPUTE
181020725620 10-20 23:53 3800 SUDBURY AVE 64 NOISE COMPLAINT
181020725678 10-20 23:52 N MYRTLE AVE AND W 26TH ST 1050 TRAFFIC STOP
181020725664 10-20 23:51 LEXINGTON AVE AND HERSCHEL ST 64 NOISE COMPLAINT
181020725670 10-20 23:50 4900 MUSTANG RD 80 PROSTITUTION (ONLY)
181020725673 10-20 23:49 CASSAT AVE AND LAWNVIEW ST 1050 TRAFFIC STOP
181020725671 10-20 23:49 ROOSEVELT/DANCY 1050 TRAFFIC STOP
181020725665 10-20 23:48 9800 BEACH BLVD 76 ASSIST OTHER AGENCY
181020725669 10-20 23:48 PARK ST AND CASSAT AVE 1050 TRAFFIC STOP
181020725666 10-20 23:48 2600 UNIVERSITY BLVD 63 DISPUTE
181020725668 10-20 23:47 N MYRTLE AVE AND MARTIN LUTHER KING JR PKWY 16 ROAD OBSTRUCTION
181020725570 10-20 23:47 N MAIN ST AND W FORSYTH ST 63 DISPUTE
181020725663 10-20 23:45 CASSAT/WATERSIDE 1050 TRAFFIC STOP
181020725642 10-20 23:45 900 ASHTON ST 22 DOMESTIC
181020725659 10-20 23:43 S I95 EXPWY AND W UNIVERSITY BLVD 96 ASSIST MOTORIST
181020725658 10-20 23:43 MONCRIEF RD AND N MYRTLE AVE 1050 TRAFFIC STOP
181020725656 10-20 23:42 LAKE SHORE/ROYCE 1050 TRAFFIC STOP
181020725652 10-20 23:41 3500 SMITHFIELD ST 64 NOISE COMPLAINT
181020725640 10-20 23:41 4100 N LAZY HOLLOW LN 64 NOISE COMPLAINT
181020725655 10-20 23:41 HAMMOND/HAMMOND FRO 1050 TRAFFIC STOP
181020725617 10-20 23:41 900 ORIENTAL GARDENS RD 64 NOISE COMPLAINT
181020725650 10-20 23:39 COLLEGE/OSECLA 1050 TRAFFIC STOP
181020725649 10-20 23:39 7900 LAKE PARK CT 13 SUSPICIOUS PERSON
181020725648 10-20 23:38 BEACH/ST JOHN 1050 TRAFFIC STOP
181020725646 10-20 23:37 VALDURA AVE AND 103RD ST 1050 TRAFFIC STOP
181020725644 10-20 23:37 5400 SPRINGFIELD BLVD 60 SUICIDE OR ATTEMPT
181020725641 10-20 23:36 1100 CELEBRANT DR 64 NOISE COMPLAINT
181020725634 10-20 23:36 IRON CREEK RD AND AUSTIN CREEK RD 64 NOISE COMPLAINT
181020725616 10-20 23:35 4400 WILLOW CHASE TER 64 NOISE COMPLAINT
181020725611 10-20 23:35 3000 S MARBON ESTATES LN 64 NOISE COMPLAINT
181020725638 10-20 23:33 103RD/HARLOW 13 SUSPICIOUS PERSON
181020725621 10-20 23:32 4500 E COBBLEFIELD CIR 64 NOISE COMPLAINT
181020725636 10-20 23:32 900 N EDGEWOOD AVE 1050 TRAFFIC STOP
181020725635 10-20 23:32 JTB/PHILIPS 1050 TRAFFIC STOP
181020725589 10-20 23:32 1500 S LANE AVE 64 NOISE COMPLAINT
181020725622 10-20 23:31 5100 COLLINS RD 33 DISCHARGING OF FIREARM
181020725633 10-20 23:30 103RD/KINKCAID 1050 TRAFFIC STOP
181020725627 10-20 23:29 8300 NEW KINGS RD 0 73 ARMED DRUG ACTIVITY
181020725631 10-20 23:29 1400 TYLER ST 1050 TRAFFIC STOP
181020725614 10-20 23:27 3700 TOLEDO RD 61 FIGHT
181020725628 10-20 23:27 11500 BEACH BLVD 1 IMPAIRED/DRUNK DRIVER
181020725626 10-20 23:27 4200 UNIVERSITY BLVD 13 SUSPICIOUS PERSON
181020725625 10-20 23:27 CASSAT/PRK 1050 TRAFFIC STOP
181020725623 10-20 23:26 500 S LANE AVE 1050 TRAFFIC STOP
181020725618 10-20 23:25 W 13TH ST AND MONCRIEF RD 1050 TRAFFIC STOP
181020725606 10-20 23:24 100 TIAA BANK FIELD DR 6388 DISPUTE WITH ASSAULT
181020725615 10-20 23:23 N DAVIS ST AND N LINCOLN CT 13 SUSPICIOUS PERSON
181020725610 10-20 23:22 2600 FORBES ST 2 63 DISPUTE IMPAIRED/INTOXICATED
181020725612 10-20 23:21 LENOX/LANE 1050 TRAFFIC STOP
181020725551 10-20 23:19 7400 HAWKS CLIFF CT 64 NOISE COMPLAINT
181020725545 10-20 23:18 6100 SHINDLER DR 76 ASSIST OTHER AGENCY
181020725474 10-20 23:18 7900 E BAYMEADOWS CIR 22 DOMESTIC
181020725586 10-20 23:17 1500 W 35TH ST 64 NOISE COMPLAINT
181020725559 10-20 23:16 100 W UNION ST 63 DISPUTE
181020725591 10-20 23:16 6100 105TH ST 22 DOMESTIC
181020725596 10-20 23:16 100 N DAMES POINT BRG 16 ROAD OBSTRUCTION
181020725603 10-20 23:15 MCCOYS CREEK BLVD AND S MYRTLE AVE 1050 TRAFFIC STOP
181020725602 10-20 23:15 DAV/15TH 1050 TRAFFIC STOP
181020725601 10-20 23:15 POST/WILLOW BRANCH 1050 TRAFFIC STOP
181020725598 10-20 23:14 POST/MARGARET 1050 TRAFFIC STOP
181020725595 10-20 23:14 CASSAT/HOMER 1050 TRAFFIC STOP
181020725592 10-20 23:13 JUSTINA RD AND MERRILL RD 16 ROAD OBSTRUCTION
181020725593 10-20 23:12 1500 LANE AVE 1050 TRAFFIC STOP
181020725528 10-20 23:12 4000 BARNES RD 64 NOISE COMPLAINT
181020725582 10-20 23:12 CITRUS LN AND VILLANOVA RD 64 NOISE COMPLAINT
181020725590 10-20 23:11 BEACH BLVD AND HUFFMAN BLVD 1050 TRAFFIC STOP
181020725568 10-20 23:10 11000 OLD ST AUGUSTINE RD 63 DISPUTE
181020725587 10-20 23:09 N DAVIS ST AND W 13TH ST 1050 TRAFFIC STOP
181020725523 10-20 23:08 8700 NEWTON RD 22 DOMESTIC
181020725571 10-20 23:08 LAURINA ST AND ATLANTIC BLVD 64 NOISE COMPLAINT
181020725585 10-20 23:07 S I295 EXPWY AND PULASKI RD 1050 TRAFFIC STOP
181020725584 10-20 23:07 8300 FREEDOM CROSSING TRL 96 ASSIST MOTORIST
181020725580 10-20 23:06 100 CHEROKEE ST 1066 CANCEL
181020725575 10-20 23:05 1500 NORMANDY VILLAGE PKWY 37 UNVERIFIED 911 CALL
181020725563 10-20 23:05 6400 WILSON BLVD 63 DISPUTE
181020725565 10-20 23:05 7600 ORLANDO AVE 27 MENTALLY ILL PERSON
181020725573 10-20 23:05 8200 NORMANDY BLVD 13 SUSPICIOUS PERSON
181020725499 10-20 23:05 100 E 16TH ST 64 NOISE COMPLAINT
181020725480 10-20 23:05 1000 E 12TH ST 64 NOISE COMPLAINT
181020725581 10-20 23:05 10000 ANDERS BLVD 13 SUSPICIOUS PERSON
181020725578 10-20 23:03 PLYMONTU/LAKE SHORE 1050 TRAFFIC STOP
181020725576 10-20 23:02 ST AUGUSTINE RD AND EMERSON ST 1050 TRAFFIC STOP
181020725572 10-20 23:02 3200 DOROTHEA RD 76 ASSIST OTHER AGENCY
181020725555 10-20 22:59 5500 N KEYSTONE DR 64 NOISE COMPLAINT
181020725567 10-20 22:59 2000 YULEE ST 62 PERSON CUT
181020725569 10-20 22:59 NORMANDY/LENOX 1050 TRAFFIC STOP
181020725566 10-20 22:58 KINGS RD AND N CANAL ST 1050 TRAFFIC STOP
181020725441 10-20 22:57 10800 OLD GAINESVILLE RD 64 NOISE COMPLAINT
181020725561 10-20 22:57 S I95 EXPWY AND J TURNER BUTLER BLVD 1050 TRAFFIC STOP
181020725560 10-20 22:56 LANE/WILSON 1050 TRAFFIC STOP
181020725557 10-20 22:55 MARGARET/POST 1050 TRAFFIC STOP
181020725552 10-20 22:55 8900 PROMINENCE PKWY 13 SUSPICIOUS PERSON
181020725533 10-20 22:55 TRACI LYNN DR AND DUNN AVE 33 DISCHARGING OF FIREARM
181020725554 10-20 22:54 POWERS AVE AND TOLEDO RD 1050 TRAFFIC STOP
181020725553 10-20 22:53 5600 103RD 1050 TRAFFIC STOP
181020725539 10-20 22:53 BEACH BLVD AND N I295 EXPWY 4 AUTO CRASH
181020725549 10-20 22:52 7000 BERRYWOOD LN 76 ASSIST OTHER AGENCY
181020725547 10-20 22:52 7000 BERRYWOOD LN 64 NOISE COMPLAINT
181020725489 10-20 22:52 2200 EVERGREEN AVE 63 DISPUTE
181020725548 10-20 22:52 CASSAT/COLLEGE 1050 TRAFFIC STOP
181020725546 10-20 22:51 10600 ATLANTIC BLVD 13 SUSPICIOUS PERSON
181020725544 10-20 22:49 LORETTO RD AND SAN JOSE BLVD 1050 TRAFFIC STOP
181020725543 10-20 22:49 SAN JUAN/HYDE PARK 1050 TRAFFIC STOP
181020725542 10-20 22:49 7700 SOUTHSIDE BLVD 1050 TRAFFIC STOP
181020725541 10-20 22:49 N I95 EXPWY AND W EDGEWOOD AVE 1 IMPAIRED/DRUNK DRIVER
181020725540 10-20 22:47 LANE/MOTHER HUBBARD 1050 TRAFFIC STOP
181020725538 10-20 22:46 SAN JUAN/JAMMES 1050 TRAFFIC STOP
181020725537 10-20 22:46 TINY TIM/BETSY 1050 TRAFFIC STOP
181020725452 10-20 22:45 10900 LEM TURNER RD 2288 DOMESTIC DISPUTE WITH/ASSAULT
181020725535 10-20 22:45 CASSAT/WOODCREST 1050 TRAFFIC STOP
181020725515 10-20 22:45 1900 S WAGES WAY 12 RECKLESS DRIVER
181020725534 10-20 22:44 W BEAVER ST AND ACORN ST 1050 TRAFFIC STOP
181020725513 10-20 22:44 2400 DUNN AVE 63 DISPUTE
181020725532 10-20 22:44 BLANDING/MORSE AVE 1050 TRAFFIC STOP
181020725516 10-20 22:43 W 62ND ST AND N PEARL ST 13 SUSPICIOUS PERSON
181020725529 10-20 22:43 10600 ITHACA DR 22 DOMESTIC
181020725531 10-20 22:41 JAMMES/SAN JUAN 1050 TRAFFIC STOP
181020725525 10-20 22:41 1400 RIVERPLACE BLVD 9 THEFT
181020725526 10-20 22:39 3100 CECELIA ST 13 SUSPICIOUS PERSON
181020725445 10-20 22:36 4300 CONFEDERATE POINT RD 63 DISPUTE
181020725418 10-20 22:35 200 CHERRY RIDGE DR 22 DOMESTIC
181020725522 10-20 22:35 SOUTEL DR AND CLYDE DR 1050 TRAFFIC STOP
181020725521 10-20 22:34 LANE/WILEY 13 SUSPICIOUS PERSON
181020725520 10-20 22:33 6800 TINKER BELL 1050 TRAFFIC STOP
181020725519 10-20 22:33 MANOTOK/OLD MIDD N 1050 TRAFFIC STOP
181020725518 10-20 22:32 LANE/SAN JUAN 1050 TRAFFIC STOP
181020725517 10-20 22:32 1ST/APR 1050 TRAFFIC STOP
181020725483 10-20 22:30 8300 HIGHFIELD AVE 2288 DOMESTIC DISPUTE WITH/ASSAULT
181020725511 10-20 22:30 3000 IMPERIAL ST 22 DOMESTIC
181020725401 10-20 22:29 6500 TOWNSEND RD 22 DOMESTIC
181020725510 10-20 22:29 W BEAVER ST AND DETROIT ST 1050 TRAFFIC STOP
181020725509 10-20 22:29 PHILIPS HWY AND EMERSON ST 1050 TRAFFIC STOP
181020725508 10-20 22:29 OAK ARBOR CIR AND BRENTWOOD BLVD 1050 TRAFFIC STOP
181020725507 10-20 22:28 4400 CON FED PT RD 1050 TRAFFIC STOP
181020725490 10-20 22:27 5600 TIMUQUANA RD 64 NOISE COMPLAINT
181020725503 10-20 22:26 8700 IVEY RD 63 DISPUTE
181020725481 10-20 22:26 700 E UNION ST 63 DISPUTE
181020725496 10-20 22:25 1900 W 12TH ST 4 AUTO CRASH
181020725475 10-20 22:24 1200 E 1ST ST 13 SUSPICIOUS PERSON
181020725487 10-20 22:24 12800 JULINGTON RIDGE DR 64 NOISE COMPLAINT
181020725494 10-20 22:24 3800 GRANT RD 64 NOISE COMPLAINT
181020725500 10-20 22:23 7000 N MAIN ST 63 DISPUTE
181020725498 10-20 22:22 MONUMENT/ATLANTIC 1050 TRAFFIC STOP
181020725491 10-20 22:22 S I295 EXPWY AND NORMANDY BLVD 4 AUTO CRASH
181020725497 10-20 22:22 MONUMENT/CANCUN 1050 TRAFFIC STOP
181020725493 10-20 22:21 10500 MONACO DR 33 DISCHARGING OF FIREARM
181020725492 10-20 22:21 W 41ST ST AND N PEARL ST 1050 TRAFFIC STOP
181020725486 10-20 22:20 1600 MALLORY ST 63 DISPUTE
181020725469 10-20 22:20 10000 SKINNER LAKE DR 63 DISPUTE
181020725465 10-20 22:19 10000 SKINNER LAKE DR 63 DISPUTE
181020725462 10-20 22:18 3500 ROYAL CIR 64 NOISE COMPLAINT
181020725484 10-20 22:18 100 MOTT ST 76 ASSIST OTHER AGENCY
181020725449 10-20 22:18 9100 BAYMEADOWS RD 10R VEHICLE THEFT RECOVERY
181020725482 10-20 22:18 N I295 EXPWY AND WILSON BLVD 4 53 TRAFFIC CRASH PERSON INJURED
181020725477 10-20 22:17 4600 BRISTOL AVE 13 SUSPICIOUS PERSON
181020725403 10-20 22:16 11300 BEACH BLVD 2 63 DISPUTE IMPAIRED/INTOXICATED
181020725478 10-20 22:16 S I95 EXPWY AND W EDGEWOOD AVE 1050 TRAFFIC STOP
181020725473 10-20 22:15 N PEARL ST AND W 24TH ST 1050 TRAFFIC STOP
181020725471 10-20 22:15 LANE/HYDE GROVE 1050 TRAFFIC STOP
181020725470 10-20 22:15 3100 EMERSON ST 1 IMPAIRED/DRUNK DRIVER
181020725467 10-20 22:14 W 22ND ST AND N MAIN ST 13 SUSPICIOUS PERSON
181020725466 10-20 22:14 2300 PHILIPS HWY 1050 TRAFFIC STOP
181020725359 10-20 22:14 W 22ND ST AND CHASE AVE 63 DISPUTE
181020725444 10-20 22:14 4100 LORENZO CT 10R VEHICLE THEFT RECOVERY
181020725397 10-20 22:13 7900 LAKE PARK CT 11 ABANDONED VEHICLE
181020725460 10-20 22:12 7400 103RD ST 1050 TRAFFIC STOP
181020725459 10-20 22:12 7500 FT CAROLINE RD 63 DISPUTE
181020725440 10-20 22:11 9700 TOUCHTON RD 10 VEHICLE THEFT
181020725450 10-20 22:11 500 E BAY ST 13 SUSPICIOUS PERSON
181020725458 10-20 22:11 LANE/GOLFVIEW 1050 TRAFFIC STOP
181020725457 10-20 22:11 ST AUGUSTINE RD AND POWERS AVE 1050 TRAFFIC STOP
181020725351 10-20 22:11 900 ASHTON ST 22 DOMESTIC
181020725454 10-20 22:10 NORMANDY/MEMORIAL PARK 13 SUSPICIOUS PERSON
181020725453 10-20 22:10 J TURNER BUTLER BLVD AND SOUTHSIDE BLVD 1050 TRAFFIC STOP
181020725443 10-20 22:09 KINGSBURY ST AND HAMILTON ST 13 SUSPICIOUS PERSON
181020725446 10-20 22:09 3100 UNIVERSITY BLVD 33 DISCHARGING OF FIREARM
181020725439 10-20 22:07 900 N EDGEWOOD AVE 14CJ VANDALISM CONVEYANCE JUST OCCURRED
181020725405 10-20 22:04 4300 KEY LARGO DR 2288 DOMESTIC DISPUTE WITH/ASSAULT
181020725393 10-20 22:03 COLLINS RD AND RAMPART RD 16 ROAD OBSTRUCTION
181020725437 10-20 22:03 BAYMEADOWS/HANSON RIDGE BLVD 1050 TRAFFIC STOP
181020725436 10-20 22:03 5800 SAN JUAN 13 SUSPICIOUS PERSON
181020725435 10-20 22:03 MCDUFF/POST 1050 TRAFFIC STOP
181020725434 10-20 22:03 3000 N MAIN ST 1050 TRAFFIC STOP
181020725428 10-20 22:03 1200 HICKMAN RD 76 ASSIST OTHER AGENCY
181020725433 10-20 22:02 3800 LANE AVE 1050 TRAFFIC STOP
181020725432 10-20 22:02 CASSAT/PLY 1050 TRAFFIC STOP
181020725386 10-20 22:02 DREW ST AND SHERIDAN LN 64 NOISE COMPLAINT
181020725429 10-20 22:01 BEA/S ELL 1050 TRAFFIC STOP
181020725426 10-20 22:01 SAN JUAN/NIBLICK 1050 TRAFFIC STOP
181020725423 10-20 22:00 11800 BEACH BLVD 60 SUICIDE OR ATTEMPT
181020725374 10-20 22:00 100 TROUT RIVER DR 63 DISPUTE
181020725424 10-20 22:00 LANE/TARUS DR 1050 TRAFFIC STOP
181020725422 10-20 22:00 100 E U S 90 HWY 16 ROAD OBSTRUCTION
181020725353 10-20 22:00 SOUTHSIDE BLVD AND TOUCHTON RD 13 SUSPICIOUS PERSON
181020725421 10-20 21:59 SOUTHSIDE BLVD AND BAYMEADOWS RD 1050 TRAFFIC STOP
181020725419 10-20 21:58 N LANE AVE AND N LANE CIR 1050 TRAFFIC STOP
181020725414 10-20 21:58 9000 SAN JOSE BLVD 64 NOISE COMPLAINT
181020725417 10-20 21:58 W 21ST ST AND N PEARL ST 1050 TRAFFIC STOP
181020725413 10-20 21:56 W EDGEWOOD AVE AND CARNATION RD 1050 TRAFFIC STOP
181020725412 10-20 21:56 ROOSEVELT/SAN JUAN 13 SUSPICIOUS PERSON
181020725406 10-20 21:55 9100 13TH AVE 5388 ASSAULT INVOLVING INJURY
181020725407 10-20 21:54 WILSON BLVD AND MACGREGOR DR 1050 TRAFFIC STOP
181020725276 10-20 21:54 3700 BELFORT RD 63 DISPUTE
181020725404 10-20 21:53 LANE/TOM THUMB 1050 TRAFFIC STOP
181020725398 10-20 21:52 12200 ATLANTIC BLVD 88 ASSAULT
181020725400 10-20 21:51 LANE/MANOTOK 1050 TRAFFIC STOP
181020725390 10-20 21:50 4900 GATE PKWY 2 63 DISPUTE IMPAIRED/INTOXICATED
181020725364 10-20 21:50 200 E COAST LINE DR 63 DISPUTE
181020725396 10-20 21:50 WILSON/JAMMES 1050 TRAFFIC STOP
181020725395 10-20 21:49 1100 CELEBRANT DR 64 NOISE COMPLAINT
181020725389 10-20 21:49 13200 CITY SQUARE DR 63 DISPUTE
181020725388 10-20 21:47 5600 COLLINS RD 64 NOISE COMPLAINT
181020725382 10-20 21:46 9700 TOUCHTON RD 1066 CANCEL
181020725358 10-20 21:45 6900 LA LOMA DR 64 NOISE COMPLAINT
181020725384 10-20 21:45 3000 E HOBKIRKS HILL CT 13 SUSPICIOUS PERSON
181020725385 10-20 21:45 6500 ARLINGTON EXPY 1050 TRAFFIC STOP
181020725383 10-20 21:44 LANE/WILEY 1050 TRAFFIC STOP
181020725380 10-20 21:43 9200 SIBBALD RD 3 HIT AND RUN CRASH
181020725378 10-20 21:43 NORMANDY/LANE 1050 TRAFFIC STOP
181020725356 10-20 21:42 4400 FRIDEN DR 64 NOISE COMPLAINT
181020725376 10-20 21:41 RAMONA BLVD AND S LANE AVE 13 SUSPICIOUS PERSON
181020725318 10-20 21:39 8200 NOROAD 63 DISPUTE
181020725342 10-20 21:39 7100 WILSON BLVD 64 NOISE COMPLAINT
181020725372 10-20 21:38 TALLULAH AVE AND W 68TH ST 1050 TRAFFIC STOP
181020725361 10-20 21:37 9700 TAPESTRY PARK CIR 64 NOISE COMPLAINT
181020725371 10-20 21:37 1000 N LANE AVE 1050 TRAFFIC STOP
181020725370 10-20 21:37 S LANE AVE AND LENOX AVE 1050 TRAFFIC STOP
181020725369 10-20 21:36 3000 PHILIPS HWY 13 SUSPICIOUS PERSON
181020725368 10-20 21:36 4800 LOSCO RD 13 SUSPICIOUS PERSON
181020725366 10-20 21:36 1300 N 301 96 ASSIST MOTORIST
181020725365 10-20 21:36 9500 PHILIPS HWY 2 63 DISPUTE IMPAIRED/INTOXICATED
181020725363 10-20 21:35 6800 WILSON BLVD 1050 TRAFFIC STOP
181020725360 10-20 21:34 BLODGETTS LN AND SPEARING ST 63 DISPUTE
181020725350 10-20 21:34 3700 CEDARCREST DR 22 DOMESTIC
181020725313 10-20 21:33 3700 TOLEDO RD 64 NOISE COMPLAINT
181020725357 10-20 21:33 103RD/BLANDING 1050 TRAFFIC STOP
181020725354 10-20 21:32 100 W 33RD ST 60 SUICIDE OR ATTEMPT
181020725355 10-20 21:32 LANE/SAN JUAN 1050 TRAFFIC STOP
181020725352 10-20 21:31 SAN JOSE BLVD AND RICKY DR 1050 TRAFFIC STOP
181020725347 10-20 21:28 NORMANDY BLVD AND DOLOMA ST 1050 TRAFFIC STOP
181020725346 10-20 21:27 S LANE AVE AND SAN JUAN AVE 1050 TRAFFIC STOP
181020725283 10-20 21:27 9000 WESTERN LAKE DR 63 DISPUTE
181020725340 10-20 21:27 1800 W 23RD ST 16 ROAD OBSTRUCTION
181020725343 10-20 21:26 6700 WILSON BLVD 1050 TRAFFIC STOP
181020725328 10-20 21:26 11100 LEM TURNER RD 63 DISPUTE
181020725310 10-20 21:26 1600 W 45TH ST 22 DOMESTIC
181020725339 10-20 21:25 CASSAT AVE AND E I10 EXPWY 1050 TRAFFIC STOP
181020725338 10-20 21:25 1600 LANSDOWNE DR 95IDT IDENTITY THEFT TELESERVE
181020725279 10-20 21:25 3000 S REX DR 2 22 DOMESTIC DISTURBANCE
181020725309 10-20 21:24 3400 KORI RD 4 AUTO CRASH
181020725330 10-20 21:23 5600 EDENFIELD RD 63 DISPUTE
181020725337 10-20 21:23 TALLULAH AVE AND LORAIN ST 1050 TRAFFIC STOP
181020725327 10-20 21:23 10600 DEERWOOD PARK BLVD 2 63 DISPUTE IMPAIRED/INTOXICATED
181020725317 10-20 21:22 5600 BRYNER DR 63 DISPUTE
181020725334 10-20 21:22 S LANE AVE AND HYDE GROVE AVE 1050 TRAFFIC STOP
181020725316 10-20 21:21 I295 RP AND S ST JOHNS BLUFF RD 3 HIT AND RUN CRASH
181020725332 10-20 21:21 NORMANDY/NEW WORLD 96 ASSIST MOTORIST
181020725329 10-20 21:20 S LANE AVE AND SAN JUAN AVE 1050 TRAFFIC STOP
181020725296 10-20 21:18 10400 DOBELL RD 63 DISPUTE
181020725311 10-20 21:18 W CHURCH ST AND CLAY ST 63 DISPUTE
181020725307 10-20 21:17 8400 W GATE PKWY 63 DISPUTE
181020725325 10-20 21:17 CASSAT/WATERSIDE 1050 TRAFFIC STOP
181020725306 10-20 21:17 8500 W GATE PKWY 64 NOISE COMPLAINT
181020725321 10-20 21:16 W MONCRIEF RD AND SOUTEL DR 1050 TRAFFIC STOP
181020725320 10-20 21:15 5800 W 5TH ST 13 SUSPICIOUS PERSON
181020725224 10-20 21:14 8700 SOUTHSIDE BLVD 2 63 DISPUTE IMPAIRED/INTOXICATED
181020725239 10-20 21:12 4400 FRIDEN DR 64 NOISE COMPLAINT
181020725301 10-20 21:12 N I95 EXPWY AND MAX LEGGETT PKWY 16 ROAD OBSTRUCTION
181020725312 10-20 21:12 S LANE AVE AND HYDE GROVE AVE 1 IMPAIRED/DRUNK DRIVER
181020725277 10-20 21:11 6500 NORMANDY BLVD 70 COUNTERFEIT
181020725308 10-20 21:11 FIRESTONE/THURSTON 1050 TRAFFIC STOP
181020725231 10-20 21:11 2900 RIBAULT SCENIC DR 63 DISPUTE
181020725288 10-20 21:10 3800 ORIELY DR 21R BURGLARY RESIDENCE
181020725305 10-20 21:10 ROGERO RD AND PINE SUMMIT DR 1050 TRAFFIC STOP
181020725297 10-20 21:10 8200 HAWKS LANDING DR 2288 DOMESTIC DISPUTE WITH/ASSAULT
181020725299 10-20 21:09 3100 W SECRET WOODS TRL 76 ASSIST OTHER AGENCY
181020725303 10-20 21:09 7900 103RD ST 1050 TRAFFIC STOP
181020725302 10-20 21:08 HODGES/CHETTS CREEK 1050 TRAFFIC STOP
181020725300 10-20 21:08 SAN JUAN AVE AND HUGH EDWARDS DR 1050 TRAFFIC STOP
181020725225 10-20 21:08 2300 W EDGEWOOD AVE 63 DISPUTE
181020725298 10-20 21:08 6800 S MISS MUFFET LN 1050 TRAFFIC STOP
181020725289 10-20 21:07 6100 MERRILL RD 27 MENTALLY ILL PERSON
181020725291 10-20 21:07 7800 NORMANDY BLVD 2 IMPAIRED/INTOXICATED
181020725295 10-20 21:06 2500 PROVOST 1 IMPAIRED/DRUNK DRIVER
181020725294 10-20 21:05 N LANE AVE AND COMMONWEALTH AVE 1050 TRAFFIC STOP
181020725290 10-20 21:05 2100 FOREST HILLS RD 2288 DOMESTIC DISPUTE WITH/ASSAULT
181020725227 10-20 21:04 10700 ANDERS BLVD 86T LOST PROPERTY (TELESERVE)
181020725286 10-20 21:04 7000 S OLD KINGS RD 76 ASSIST OTHER AGENCY
181020725287 10-20 21:04 W 12TH ST AND ST CLAIR ST 1050 TRAFFIC STOP
181020725218 10-20 21:03 6300 118TH ST 64 NOISE COMPLAINT
181020725267 10-20 21:03 1600 E 14TH ST 22 DOMESTIC
181020725284 10-20 21:02 LANE/TINKERBELL 1050 TRAFFIC STOP
181020725272 10-20 21:02 5900 W UNIVERSITY BLVD 8 MISSING PERSON
181020725282 10-20 21:02 ROOS/MELROSE 1050 TRAFFIC STOP
181020725278 10-20 21:00 LANE/HYDE GROVE 1050 TRAFFIC STOP
181020725265 10-20 20:59 1500 S LANE AVE 1066 CANCEL
181020725246 10-20 20:59 11700 HEATHER GROVE LN 63 DISPUTE
181020725187 10-20 20:59 7500 STRATO RD 6388 DISPUTE WITH ASSAULT
181020725275 10-20 20:59 W EDGEWOOD AVE AND PICKETT ST 1050 TRAFFIC STOP
181020725274 10-20 20:58 EDGE/PICK 1050 TRAFFIC STOP
181020725273 10-20 20:58 LANE/NORMANDY 1050 TRAFFIC STOP
181020725209 10-20 20:58 1500 W 27TH ST 9 THEFT
181020725270 10-20 20:58 4000 SAN PABLO PKWY 1050 TRAFFIC STOP
181020725268 10-20 20:57 FLORIDA AVE AND E 5TH ST 1050 TRAFFIC STOP
181020725252 10-20 20:57 9400 REGENCY SQUARE BLVD 63 DISPUTE
181020725249 10-20 20:57 2200 HOLLY OAKS RIVER DR 9T THEFT (TELESERVE)
181020725258 10-20 20:56 1600 SAN MARCO BLVD 63 DISPUTE
181020725242 10-20 20:56 12600 N WINDY WILLOWS DR 64 NOISE COMPLAINT
181020725248 10-20 20:56 2800 RIPLEY AVE 63 DISPUTE
181020725264 10-20 20:56 3100 CECELIA ST 21RP BURGLARY RESIDENCE IN PROGRESS
181020725262 10-20 20:56 2900 JUSTINA RD 76 ASSIST OTHER AGENCY
181020725263 10-20 20:55 LANE/SAN JUAN 1050 TRAFFIC STOP
181020725260 10-20 20:54 LANE/WILSON B LVD 1050 TRAFFIC STOP
181020725259 10-20 20:54 S LANE AVE AND RAMONA BLVD 1050 TRAFFIC STOP
181020725254 10-20 20:53 4000 PIPER DR 64 NOISE COMPLAINT
181020725256 10-20 20:53 LANE/HYDE 1050 TRAFFIC STOP
181020725255 10-20 20:53 14TH/PHOENIX 1050 TRAFFIC STOP
181020725237 10-20 20:53 8800 HIPPS RD 63 DISPUTE
181020725101 10-20 20:52 4600 W SOLANDRA CIR 21R BURGLARY RESIDENCE
181020725251 10-20 20:52 COMMONWEALTH AVE AND N ELLIS RD 1050 TRAFFIC STOP
181020725244 10-20 20:52 W U S 90 HWY AND S US 301 HWY 12 RECKLESS DRIVER
181020725247 10-20 20:51 2900 PARENTAL HOME RD 8 MISSING PERSON
181020725245 10-20 20:51 LANE/RAMONA 1050 TRAFFIC STOP
181020725243 10-20 20:51 LANE/SAN 1050 TRAFFIC STOP
181020725241 10-20 20:50 2900 PARENTAL HOME RD 8 MISSING PERSON
181020725164 10-20 20:50 2100 BUCKMAN ST 95ID IDENTITY THEFT
181020725240 10-20 20:49 BLANDING BLVD AND MORSE AVE 1050 TRAFFIC STOP
181020725235 10-20 20:49 700 TREKKER ST 64 NOISE COMPLAINT
181020725238 10-20 20:48 4500 SPRING PARK RD 1050 TRAFFIC STOP
181020725234 10-20 20:47 1100 E 11TH ST 13 SUSPICIOUS PERSON
181020725208 10-20 20:47 CARROL RD AND LEON RD 63 DISPUTE
181020725232 10-20 20:46 2900 PARENTAL HOME RD 8 MISSING PERSON
181020725229 10-20 20:46 2900 PARENTAL HOME RD 8 MISSING PERSON
181020725155 10-20 20:46 1200 E 3RD ST 63 DISPUTE
181020725228 10-20 20:45 W MONCRIEF RD AND E KEN KNIGHT DR 1050 TRAFFIC STOP
181020725222 10-20 20:45 4800 GATE PKWY 63 DISPUTE
181020725223 10-20 20:45 700 EDGE 1050 TRAFFIC STOP
181020725202 10-20 20:45 9300 UNDERWING WAY 2288 DOMESTIC DISPUTE WITH/ASSAULT
181020725220 10-20 20:44 PINNOCHIO DR AND S LANE AVE 1050 TRAFFIC STOP
181020725219 10-20 20:44 700 N EDGEWOOD AVE 1050 TRAFFIC STOP
181020725205 10-20 20:44 N I295 EXPWY 4 AUTO CRASH
181020725217 10-20 20:43 LANE/LENOX 1050 TRAFFIC STOP
181020725216 10-20 20:43 3900 WINTON DR 1050 TRAFFIC STOP
181020725203 10-20 20:42 11900 W DOVER VILLAGE DR 9 THEFT
181020725162 10-20 20:42 400 PECAN PARK RD 87 DAMAGED PROPERTY
181020725212 10-20 20:41 6800 GOLDILOCKS 1050 TRAFFIC STOP
181020725198 10-20 20:41 N I295 EXPWY AND SAN JOSE BLVD 4 AUTO CRASH
181020725210 10-20 20:40 GRACE/LANE 13 SUSPICIOUS PERSON
181020725197 10-20 20:40 3400 GALILEE RD 13 SUSPICIOUS PERSON
181020725207 10-20 20:39 W BEAVER ST AND S EDGEWOOD AVE 1050 TRAFFIC STOP
181020725206 10-20 20:39 W EDGEWOOD AVE AND TALLAHASSEE AVE 1050 TRAFFIC STOP
181020725204 10-20 20:39 6700 WILSON BLVD 1050 TRAFFIC STOP
181020725200 10-20 20:38 10100 JACKSON TER 76 ASSIST OTHER AGENCY
181020725167 10-20 20:37 3700 TOLEDO RD 64 NOISE COMPLAINT
181020725195 10-20 20:36 100 N BUCKMAN BRG 4 53 TRAFFIC CRASH PERSON INJURED
181020725134 10-20 20:36 S LANE AVE AND WILEY RD 54 ILLEGALLY PARKED CAR
181020725196 10-20 20:36 7600 103RD 13 SUSPICIOUS PERSON
181020725194 10-20 20:35 S I95 EXPWY AND GOLFAIR BLVD 1050 TRAFFIC STOP
181020725193 10-20 20:34 10300 SOUTHSIDE 63 DISPUTE
181020725189 10-20 20:33 3800 N MAIN ST 63 DISPUTE
181020725186 10-20 20:33 PHILIPS HWY AND EMERSON ST 16 ROAD OBSTRUCTION
181020725185 10-20 20:31 5300 PERGRAN CT 63 DISPUTE
181020725191 10-20 20:30 I295 NB/MERRILL 1050 TRAFFIC STOP
181020725182 10-20 20:30 7700 SOUTHSIDE BLVD 22 DOMESTIC
181020725190 10-20 20:30 BROADWAY AVE AND N EDGEWOOD AVE 1050 TRAFFIC STOP
181020725188 10-20 20:29 ATLANTIC/KERNAN 1050 TRAFFIC STOP
181020725175 10-20 20:29 7800 VOLVO ST 22 DOMESTIC
181020725184 10-20 20:27 NEW KINGS RD AND N EDGEWOOD AVE 1050 TRAFFIC STOP
181020725176 10-20 20:26 11900 ATLANTIC BLVD 5582 HOLDING ONE FOR SHOPLIFTING
181020725180 10-20 20:26 4600 N MAIN ST 64 NOISE COMPLAINT
181020725166 10-20 20:24 OSCEOLA ST AND PARK ST 63 DISPUTE
181020725173 10-20 20:23 BROADWAY AVE AND N EDGEWOOD AVE 1050 TRAFFIC STOP
181020725170 10-20 20:23 1200 MELSON AVE 8 MISSING PERSON
181020725171 10-20 20:22 5800 RAMONA BLVD 13 SUSPICIOUS PERSON
181020725169 10-20 20:22 HAMMOND/ROCKPOND 1050 TRAFFIC STOP
181020725168 10-20 20:22 8900 6TH AVE 1066 CANCEL
181020725124 10-20 20:21 2300 PHILIPS HWY 63 DISPUTE
181020725165 10-20 20:20 10200 W BEAVER ST 63 DISPUTE
181020725163 10-20 20:19 200 SB/WIL 1050 TRAFFIC STOP
181020725154 10-20 20:18 3000 POST ST 9J THEFT JUST OCCURRED
181020725133 10-20 20:17 W 26TH ST AND WILSON ST 63 DISPUTE
181020725160 10-20 20:16 500 S LANE AVE 9 THEFT
181020725158 10-20 20:15 PHILIPS HWY AND EMERSON ST 96 ASSIST MOTORIST
181020725089 10-20 20:14 2600 W KERSEY DR 1066 CANCEL
181020725119 10-20 20:14 3200 S UNIVERSITY BLVD 63 DISPUTE
181020725093 10-20 20:14 5000 PLAYPEN DR 63 DISPUTE
181020725152 10-20 20:12 N EDGEWOOD AVE AND COMMONWEALTH AVE 1050 TRAFFIC STOP
181020725151 10-20 20:12 PHILLIPS INDUSTRIAL BLVD AND E PHILLIPS INDUSTRIAL BLVD 1050 TRAFFIC STOP
181020725145 10-20 20:11 7200 RAMOTH DR 64 NOISE COMPLAINT
181020725150 10-20 20:11 4300 SPORTSMAN CLUB RD 9T THEFT (TELESERVE)
181020725118 10-20 20:10 100 ACME ST 3 HIT AND RUN CRASH
181020725135 10-20 20:10 8200 EATON AVE 16 ROAD OBSTRUCTION
181020725144 10-20 20:09 APPLE LEAF DR AND S KERNAN BLVD 96 ASSIST MOTORIST
181020725140 10-20 20:08 600 LONG BRANCH BLVD 13 SUSPICIOUS PERSON
181020725137 10-20 20:08 800 DAY AVE 76 ASSIST OTHER AGENCY
181020725138 10-20 20:08 N EDGEWOOD AVE AND COMMONWEALTH AVE 1050 TRAFFIC STOP
181020725102 10-20 20:07 5500 S OLD MIDDLEBURG RD 88J ASSAULT JUST OCCURRED
181020725136 10-20 20:07 3200 HARTLEY RD 3 HIT AND RUN CRASH
181020725127 10-20 20:06 1000 N LANE AVE 68 CON GAME/FLIM FLAM
181020725132 10-20 20:05 4900 W MONCRIEF RD 3 HIT AND RUN CRASH
181020725129 10-20 20:04 N LAUREL GROVE AND W LAKE MANDARIN CIR 4 53 TRAFFIC CRASH PERSON INJURED
181020725131 10-20 20:04 S CHAFFE/OLD GAINEVILLE 1050 TRAFFIC STOP
181020725108 10-20 20:03 3800 ST AUGUSTINE RD 63 DISPUTE
181020725128 10-20 20:03 1500 LANE AVE 1050 TRAFFIC STOP
181020725125 10-20 20:02 DUVAL RD AND RANCH RD 4 AUTO CRASH
181020725123 10-20 20:00 MARISCO WAY AND N HALSEMA RD 13 SUSPICIOUS PERSON
181020725122 10-20 19:59 13200 CITY SQUARE DR 9P THEFT IN PROGRESS
181020725121 10-20 19:58 S I295 EXPWY AND COMMONWEALTH AVE 96 ASSIST MOTORIST
181020725092 10-20 19:58 900 S EDGEWOOD AVE 73 DRUG INVESTIGATION
181020725116 10-20 19:57 E ASHLEY ST AND N NEWNAN ST 76 ASSIST OTHER AGENCY
181020725117 10-20 19:56 7500 SAN JOSE BLVD 1050 TRAFFIC STOP
181020725115 10-20 19:56 ARLINGTON RD/LILLIAN 1050 TRAFFIC STOP
181020725088 10-20 19:56 1800 MOSELEY ST 22 DOMESTIC
181020725111 10-20 19:56 700 W CHURCH ST 1066 CANCEL
181020725109 10-20 19:54 W MONCRIEF RD AND OWEN AVE 1050 TRAFFIC STOP
181020725107 10-20 19:53 11700 BEACH BLVD 1050 TRAFFIC STOP
181020725105 10-20 19:52 200 E COAST LINE DR 4 AUTO CRASH
181020725084 10-20 19:51 11000 OLD ST AUGUSTINE RD 22 DOMESTIC
181020725103 10-20 19:51 LENOX AVE AND S MCDUFF AVE 1050 TRAFFIC STOP
181020725100 10-20 19:51 S ST JOHNS BLUFF RD AND BEACH BLVD 1050 TRAFFIC STOP
181020725083 10-20 19:50 2300 CAMDEN AVE 63 DISPUTE
181020725099 10-20 19:50 1700 KINGS RD 1050 TRAFFIC STOP
181020725078 10-20 19:49 J TURNER BUTLER BLVD AND SOUTHSIDE BLVD 16 ROAD OBSTRUCTION
181020725094 10-20 19:48 MONUMENT RD AND MCCORMICK RD 96 ASSIST MOTORIST
181020725091 10-20 19:46 1400 SILVER ST 1066 CANCEL
181020725090 10-20 19:45 CECELIA ST AND SHEARER AVE 1050 TRAFFIC STOP
181020725087 10-20 19:44 3300 FOREST BLVD 1050 TRAFFIC STOP
181020725086 10-20 19:44 N MCDUFF AVE AND W BEAVER ST 1050 TRAFFIC STOP
181020725065 10-20 19:44 1200 LABELLE ST 22 DOMESTIC
181020725026 10-20 19:44 4700 ROYAL AVE 63 DISPUTE
181020724996 10-20 19:44 6800 MAYNARD PL 64 NOISE COMPLAINT
181020725058 10-20 19:43 SAN JOSE BLVD AND HARTLEY RD 63 DISPUTE
181020725068 10-20 19:43 ATLANTIC BLVD AND OGILVIE PARK LN 4 AUTO CRASH
181020725081 10-20 19:43 OLD MIDD/NO RD 1050 TRAFFIC STOP
181020725050 10-20 19:43 3300 MILLCREST PL 54 ILLEGALLY PARKED CAR
181020725063 10-20 19:42 100 E 16TH ST 64 NOISE COMPLAINT
181020725079 10-20 19:42 BLANDING/WILSON 1050 TRAFFIC STOP
181020725075 10-20 19:41 N I95 EXPWY AND PECAN PARK RD 4 AUTO CRASH
181020725017 10-20 19:41 9600 HAZEL LAKE DR 22 DOMESTIC
181020725027 10-20 19:41 8200 MERIVALE RD 95IDT IDENTITY THEFT TELESERVE
181020724954 10-20 19:40 E ASHLEY ST AND N LIBERTY ST 91 TRAFFIC LIGHT/RR CROSSING MALFUNCTION
181020725055 10-20 19:40 6000 ARGYLE FOREST BLVD 13 SUSPICIOUS PERSON
181020725062 10-20 19:39 11000 OLD ST AUGUSTINE RD 1 4 CRASH W/IMPAIRED/DRUNK DRIVER
181020725069 10-20 19:39 2900 PARENTAL HOME RD 8 MISSING PERSON
181020725074 10-20 19:38 SOUTHSIDE/PARADISE ISLAND 1050 TRAFFIC STOP
181020725072 10-20 19:37 N MYRTLE AVE AND KINGS RD 1050 TRAFFIC STOP
181020725070 10-20 19:37 PHILLIPS/JTB 1050 TRAFFIC STOP
181020725061 10-20 19:36 600 S CHAFFEE RD 4 53 TRAFFIC CRASH PERSON INJURED
181020724989 10-20 19:34 3600 ROGERO RD 63 DISPUTE
181020724998 10-20 19:33 7200 MERRILL RD 22 DOMESTIC
181020725015 10-20 19:32 6900 GOLDILOCKS LN 22 DOMESTIC
181020725054 10-20 19:31 13700 BEACH BLVD 9 THEFT
181020725051 10-20 19:31 3100 CESERY BLVD 33 DISCHARGING OF FIREARM
181020725045 10-20 19:31 9400 REGENCY SQUARE BLVD 56 JUVENILE COMPLAINT
181020725046 10-20 19:30 1400 DANCY ST 60 SUICIDE OR ATTEMPT
181020724994 10-20 19:29 3500 BEACH BLVD 63 DISPUTE
181020725047 10-20 19:29 TIMQ/MAR 1050 TRAFFIC STOP
181020725044 10-20 19:28 TYLER ST AND KINGS RD 1050 TRAFFIC STOP
181020725043 10-20 19:28 BEAVER/OTIS 1050 TRAFFIC STOP
181020725035 10-20 19:28 6300 FALBRIDGE CT 1066 CANCEL
181020724991 10-20 19:28 8600 ST PATRICK LN 2 22 DOMESTIC DISTURBANCE
181020725041 10-20 19:27 2200 DUNN AVE 1050 TRAFFIC STOP
181020725038 10-20 19:26 SAN JOSE BLVD AND OAK BLUFF LN 88P ASSAULT IN PROGRESS
181020725039 10-20 19:26 LENOX AVE AND S MCDUFF AVE 1050 TRAFFIC STOP
181020725037 10-20 19:25 1300 KINGS RD 13 SUSPICIOUS PERSON
181020725032 10-20 19:25 4200 W WINDSOR PARK DR 22 DOMESTIC
181020725008 10-20 19:24 2100 S LANE AVE 64 NOISE COMPLAINT
181020725034 10-20 19:23 7600 103RD ST 63 DISPUTE
181020725022 10-20 19:23 E PROVOST RD AND DEAN RD 4 AUTO CRASH
181020725030 10-20 19:23 BEACH/HUFFMAN 1050 TRAFFIC STOP
181020725012 10-20 19:22 5400 LA MOYA AVE 33 DISCHARGING OF FIREARM
181020725028 10-20 19:22 1300 W 15TH ST 22 DOMESTIC
181020725029 10-20 19:22 BEACH BLVD AND HODGES BLVD 1050 TRAFFIC STOP
181020725025 10-20 19:21 MAIN/I95 1050 TRAFFIC STOP
181020725013 10-20 19:20 4600 FRIDEN DR 64 NOISE COMPLAINT
181020725019 10-20 19:20 4300 PHILIPS HWY 23I ROBBERY INDIVIDUAL
181020724962 10-20 19:19 12200 ATLANTIC BLVD 56 JUVENILE COMPLAINT
181020725018 10-20 19:19 100 W 4TH ST 63 DISPUTE
181020724995 10-20 19:18 14500 DUVAL RD 63 DISPUTE
181020725014 10-20 19:18 BLANDING/SAN JUAN 1050 TRAFFIC STOP
181020725009 10-20 19:17 8700 BAYMEADOWS RD 76 ASSIST OTHER AGENCY
181020725011 10-20 19:16 7400 S OLD KINGS RD 1050 TRAFFIC STOP
181020724990 10-20 19:16 1800 PROSPECT ST 14C VANDALISM CONVEYANCE
181020725007 10-20 19:15 ROOSEVELT/TIMU 1050 TRAFFIC STOP
181020724961 10-20 19:14 8900 BRIDGECREEK DR 64 NOISE COMPLAINT
181020725006 10-20 19:14 DISCOVERY WAY AND BEACH BLVD 1050 TRAFFIC STOP
181020724999 10-20 19:13 100 W 67TH ST 2 22 DOMESTIC DISTURBANCE
181020725000 10-20 19:12 8200 SUSIE ST 76 ASSIST OTHER AGENCY
181020724993 10-20 19:11 3700 E HASLETT DR 63 DISPUTE
181020724997 10-20 19:11 MARTIN LUTHER KING JR PKWY AND MONCRIEF RD 1050 TRAFFIC STOP
181020724992 10-20 19:10 2100 LOUISE ST 63 DISPUTE
181020724984 10-20 19:10 8200 KONA AVE 22 DOMESTIC
181020724988 10-20 19:09 9300 PHILIPS HWY 22 DOMESTIC
181020724900 10-20 19:08 4600 TOWN CENTER PKWY 9T THEFT (TELESERVE)
181020724987 10-20 19:08 700 ST JOHNS 1050 TRAFFIC STOP
181020724918 10-20 19:07 5200 COLLINS RD 63 DISPUTE
181020724982 10-20 19:06 1000 KING ST 76 ASSIST OTHER AGENCY
181020724985 10-20 19:06 7100 MERRILL RD 76 ASSIST OTHER AGENCY
181020724975 10-20 19:05 3200 SOUTEL DR 4 AUTO CRASH
181020724973 10-20 19:05 8300 E CONCORD BLVD 22 DOMESTIC
181020724978 10-20 19:04 N EDGEWOOD AVE AND COMMONWEALTH AVE 1050 TRAFFIC STOP
181020724920 10-20 19:04 10600 HEMMING RD 22 DOMESTIC
181020724976 10-20 19:03 BROADWAY AVE AND GARFIELD ST 1050 TRAFFIC STOP
181020724974 10-20 19:02 600 N ST JOHNS BLUFF RD 38 TRAFFIC ASSIGNMENT
181020724971 10-20 19:02 8500 W GATE PKWY 64 NOISE COMPLAINT
181020724970 10-20 19:01 10300 SOUTHSIDE BLVD 4 AUTO CRASH
181020724965 10-20 19:00 FINNS COVE TRL AND BRIGHTON BAY TRL 1 IMPAIRED/DRUNK DRIVER
181020724912 10-20 18:58 9800 NORFOLK BLVD 19 ANIMAL INVESTIGATION
181020724964 10-20 18:58 1600 W 8TH ST 63 DISPUTE
181020724941 10-20 18:58 TIMUQUANA RD AND STARKE RD 16 ROAD OBSTRUCTION
181020724966 10-20 18:57 FAIRFAX ST AND W 14TH ST 1050 TRAFFIC STOP
181020724869 10-20 18:57 10300 SOUTHSIDE BLVD 9 THEFT
181020724935 10-20 18:56 S OLD MIDDLEBURG RD AND COLLINS RD 16 ROAD OBSTRUCTION
181020724909 10-20 18:56 2300 W EDGEWOOD AVE 2 63 DISPUTE IMPAIRED/INTOXICATED
181020724943 10-20 18:55 13700 LAKE NEWMAN ST 61 FIGHT
181020724937 10-20 18:55 800 PRUDENTIAL DR 22 DOMESTIC
181020724959 10-20 18:54 BAYMEADOWS RD AND DEERWOOD CROSSINGS DR 1050 TRAFFIC STOP
181020724953 10-20 18:54 S LANE AVE AND JACK HORNER LN 16 ROAD OBSTRUCTION
181020724956 10-20 18:54 S I95 EXPWY AND AIRPORT RD 22 DOMESTIC
181020724958 10-20 18:53 1400 HURON ST 3 HIT AND RUN CRASH
181020724950 10-20 18:51 2400 W WINTERWOOD CIR 76 ASSIST OTHER AGENCY
181020724946 10-20 18:50 8800 BAYMEADOWS RD 63 DISPUTE
181020724901 10-20 18:50 1900 E 21ST ST 88 ASSAULT
181020724928 10-20 18:49 S I295 EXPWY AND MONUMENT RD 68 CON GAME/FLIM FLAM
181020724952 10-20 18:49 500 A PHILIP RANDOLPH BLVD 1050 TRAFFIC STOP
181020724921 10-20 18:49 1700 FELCH AVE 21C BURGLARY CONVEYANCE
181020724951 10-20 18:48 1100 W 21ST ST 76 ASSIST OTHER AGENCY
181020724945 10-20 18:48 200 CRYSTAL ST 63 DISPUTE
181020724944 10-20 18:47 200 S MCDUFF AVE 9J THEFT JUST OCCURRED
181020724938 10-20 18:47 105TH ST AND JAMMES RD 22 DOMESTIC
181020724942 10-20 18:47 15600 PARETE RD 33 DISCHARGING OF FIREARM
181020724947 10-20 18:47 5900 DIAMOND ST 1050 TRAFFIC STOP
181020724878 10-20 18:45 3500 UNIVERSITY BLVD 22 DOMESTIC
181020724913 10-20 18:45 WOOLERY DR AND MERRILL RD 12 RECKLESS DRIVER
181020724895 10-20 18:45 2000 MINDANAO DR 64 NOISE COMPLAINT
181020724886 10-20 18:44 5000 N MAIN ST 63 DISPUTE
181020724936 10-20 18:44 2700 CLYDE DR 37 UNVERIFIED 911 CALL
181020724911 10-20 18:44 MONUMENT RD AND I295 RP 61 FIGHT
181020724915 10-20 18:43 6300 W PENNANT DR 63 DISPUTE
181020724934 10-20 18:43 N MYRTLE AVE AND MARTIN LUTHER KING JR PKWY 1050 TRAFFIC STOP
181020724929 10-20 18:43 ROOSEVELT BLVD AND S EDGEWOOD AVE 4 AUTO CRASH
181020724932 10-20 18:42 FAIRFAX ST AND MARTIN LUTHER KING JR PKWY 96 ASSIST MOTORIST
181020724925 10-20 18:41 500 E LAZY MEADOW DR 1066 CANCEL
181020724872 10-20 18:40 13700 BEACH BLVD 9 THEFT
181020724927 10-20 18:40 W BEAVER ST AND MELSON AVE 1050 TRAFFIC STOP
181020724926 10-20 18:39 MONCRIEF RD AND N MYRTLE AVE 1050 TRAFFIC STOP
181020724903 10-20 18:37 10300 SOUTHSIDE BLVD 4 AUTO CRASH
181020724919 10-20 18:37 13700 BEACH BLVD 60 SUICIDE OR ATTEMPT
181020724917 10-20 18:36 4100 EMILIO LN 13 SUSPICIOUS PERSON
181020724870 10-20 18:36 100 W 4TH ST 63 DISPUTE
181020724891 10-20 18:35 2300 WESTMONT ST 63 DISPUTE
181020724916 10-20 18:34 400 N MAIN ST 52 ILLEGAL DUMPING
181020724873 10-20 18:34 PICARSA DR AND TARRASA DR 90 FIREWORKS
181020724902 10-20 18:33 HODGES BLVD AND THE WOODS PARK DR 16 ROAD OBSTRUCTION
181020724691 10-20 18:33 11200 BELMONT OAKS DR 54 ILLEGALLY PARKED CAR
181020724904 10-20 18:31 6100 YOUNGERMAN CIR 63 DISPUTE
181020724887 10-20 18:31 100 N ARLINGTON RD 0 88J ARMED ASSAULT JUST OCCURRED
181020724908 10-20 18:31 100 E UNION ST 73 DRUG INVESTIGATION
181020724906 10-20 18:30 10300 NORMANWOOD CT 22 DOMESTIC
181020724910 10-20 18:30 KINGS RD AND BRADY ST 1050 TRAFFIC STOP
181020724907 10-20 18:28 BLANDING BLVD AND LONGCHAMP DR 1050 TRAFFIC STOP
181020724809 10-20 18:27 100 KING ST 63 DISPUTE
181020724905 10-20 18:27 BEACH BLVD AND S KERNAN BLVD 4 AUTO CRASH
181020724899 10-20 18:24 ROOSEVELT BLVD AND BEVERLY AVE 1050 TRAFFIC STOP
181020724862 10-20 18:22 2100 INWOOD TER 64 NOISE COMPLAINT
181020724897 10-20 18:22 4100 LAKESIDE DR 56 JUVENILE COMPLAINT
181020724896 10-20 18:21 6000 YOUNGERMAN CIR 1050 TRAFFIC STOP
181020724877 10-20 18:20 2000 JAMMES RD 14C VANDALISM CONVEYANCE
181020724883 10-20 18:20 1800 PARENTAL HOME RD 56 JUVENILE COMPLAINT
181020724893 10-20 18:20 PHI/EMER 1050 TRAFFIC STOP
181020724892 10-20 18:19 E I10 EXPWY AND CASSAT AVE 1050 TRAFFIC STOP
181020724889 10-20 18:17 LEM TURNER RD AND BROOM ST 1050 TRAFFIC STOP
181020724888 10-20 18:17 6200 YOUNGERMAN 1050 TRAFFIC STOP
181020724882 10-20 18:15 5200 NORWOOD AVE 4 AUTO CRASH
181020724884 10-20 18:15 N EDGEWOOD AVE AND W 12TH ST 96 ASSIST MOTORIST
181020724874 10-20 18:13 6000 CLIFTON AVE 13 SUSPICIOUS PERSON
181020724876 10-20 18:11 PARK ST AND MURRAY DR 16 ROAD OBSTRUCTION
181020724839 10-20 18:10 2400 E WATTLE TREE RD 21CT BURGLARY CONVEYANCE TELESERVE
181020724868 10-20 18:10 3500 BEACH BLVD 88P ASSAULT IN PROGRESS
181020724871 10-20 18:10 300 E LAZY MEADOW DR 76 ASSIST OTHER AGENCY
181020724859 10-20 18:06 2000 BILLS DR 0 22 DOMESTIC DISTURBANCE W/WEAPON
181020724864 10-20 18:05 11000 W PINE ESTATES RD 19 ANIMAL INVESTIGATION
181020724865 10-20 18:05 S MCDUFF AVE AND ROOSEVELT BLVD 1050 TRAFFIC STOP
181020724863 10-20 18:04 GATOR BOWL BLVD N FRNT OF J 4 53 TRAFFIC CRASH PERSON INJURED
181020724815 10-20 18:03 5900 MERRILL RD 63 DISPUTE
181020724772 10-20 18:03 400 CENTURY 21 DR 63 DISPUTE
181020724785 10-20 18:03 1200 N ARLINGTON RD 6388 DISPUTE WITH ASSAULT
181020724861 10-20 18:01 100 W MATHEWS BRG 16 ROAD OBSTRUCTION
181020724860 10-20 18:01 5300 ARLINGTON EXPWY 3 HIT AND RUN CRASH
181020724807 10-20 18:01 3000 MONUMENT RD 68 CON GAME/FLIM FLAM
181020724783 10-20 18:00 4500 E WOODSONG LOOP 22 DOMESTIC
181020724810 10-20 18:00 1100 BERT RD 10J VEHICLE THEFT JUST OCCURRED
181020724858 10-20 18:00 S LANE AVE AND PINNOCHIO DR 1050 TRAFFIC STOP
181020724846 10-20 17:59 UNIVERSITY BLVD AND GOLF COURSE DR 13 SUSPICIOUS PERSON
181020724834 10-20 17:59 UNIVERSITY BLVD AND EDENFIELD RD 16 ROAD OBSTRUCTION
181020724838 10-20 17:58 6000 FT CAROLINE RD 19 ANIMAL INVESTIGATION
181020724769 10-20 17:58 2900 E KELSO CIR 1066 CANCEL
181020724856 10-20 17:58 ROOSEVELT BLVD AND ORTEGA FOREST DR 1050 TRAFFIC STOP
181020724853 10-20 17:57 3700 BELFORT RD 88 ASSAULT
181020724847 10-20 17:57 WILSON BLVD AND FIRESTONE RD 63 DISPUTE
181020724778 10-20 17:56 1700 MONUMENT RD 4 AUTO CRASH
181020724850 10-20 17:56 11800 N ASHBROOK CIR 16 ROAD OBSTRUCTION
181020724848 10-20 17:54 MORSE AVE AND QUAIL COVE LN 12 RECKLESS DRIVER
181020724845 10-20 17:53 4300 PUTNAM AVE 64 NOISE COMPLAINT
181020724837 10-20 17:52 8700 NEWTON RD 10R VEHICLE THEFT RECOVERY
181020724828 10-20 17:52 900 WAYNE ST 22 DOMESTIC
181020724843 10-20 17:52 ARGYLE FOREST BLVD AND W CANDLEWOOD DR 1050 TRAFFIC STOP
181020724835 10-20 17:50 4500 LAMBING RD 63 DISPUTE
181020724836 10-20 17:49 CLYDE DR AND LEM TURNER RD 1050 TRAFFIC STOP
181020724833 10-20 17:49 CLYDE DR AND LEM TURNER RD 1050 TRAFFIC STOP
181020724822 10-20 17:46 6900 S OLD MIDDLEBURG RD 27 MENTALLY ILL PERSON
181020724824 10-20 17:46 9500 CROSSHILL BLVD 63 DISPUTE
181020724820 10-20 17:46 11100 SAN JOSE BLVD 54 ILLEGALLY PARKED CAR
181020724829 10-20 17:45 600 E UNION ST 68 CON GAME/FLIM FLAM
181020724799 10-20 17:45 2700 DELLWOOD AVE 63 DISPUTE
181020724827 10-20 17:44 S I295 EXPWY AND NORMANDY BLVD 1050 TRAFFIC STOP
181020724825 10-20 17:44 2400 SPRING PARK RD 13 SUSPICIOUS PERSON
181020724817 10-20 17:43 DUPONT AVE AND SAN JOSE BLVD 13 SUSPICIOUS PERSON
181020724826 10-20 17:43 YOUNGERMAN CIR AND BLANDING BLVD 1050 TRAFFIC STOP
181020724823 10-20 17:42 ARGYLE FOREST BLVD AND YOUNGERMAN CIR 1050 TRAFFIC STOP
181020724794 10-20 17:42 9500 ARLINGTON EXPWY 9 THEFT
181020724818 10-20 17:39 10300 SOUTHSIDE BLVD 9T THEFT (TELESERVE)
181020724819 10-20 17:39 13200BARTPARK 1050 TRAFFIC STOP
181020724811 10-20 17:38 600 W 8TH ST 63 DISPUTE
181020724814 10-20 17:36 10800 HARTS RD 22 DOMESTIC
181020724808 10-20 17:35 1700 HODGES BLVD 76 ASSIST OTHER AGENCY
181020724798 10-20 17:34 3600 WOOD CREEK LN 63 DISPUTE
181020724771 10-20 17:34 9400 PHILIPS HWY 9 THEFT
181020724790 10-20 17:33 4200 DUNN AVE 4 AUTO CRASH
181020724805 10-20 17:32 1600 FAIRFAX ST 63 DISPUTE
181020724804 10-20 17:32 BLANDING/COLLINS 1050 TRAFFIC STOP
181020724751 10-20 17:31 4800 SOUTEL DR 63 DISPUTE
181020724766 10-20 17:30 7000 ARLET DR 16 ROAD OBSTRUCTION
181020724800 10-20 17:30 N OLD MIDDLEBURG RD AND WILSON BLVD 1050 TRAFFIC STOP
181020724796 10-20 17:29 1400 RIVERPLACE BLVD 9 THEFT
181020724784 10-20 17:29 10200 ATLANTIC BLVD 9T THEFT (TELESERVE)
181020724756 10-20 17:29 10900 SAN JOSE BLVD 2 IMPAIRED/INTOXICATED
181020724795 10-20 17:28 LEM TURNER RD AND BROOM ST 1050 TRAFFIC STOP
181020724791 10-20 17:26 1000 HURON ST 22 DOMESTIC
181020724789 10-20 17:24 1000 DYAL ST 88 ASSAULT
181020724786 10-20 17:21 800 N JEFFERSON ST 52 ILLEGAL DUMPING
181020724743 10-20 17:20 5300 ARLINGTON EXPWY 0 22 DOMESTIC DISTURBANCE W/WEAPON
181020724767 10-20 17:20 4900 BLANDING BLVD 60 SUICIDE OR ATTEMPT
181020724780 10-20 17:20 RVPL/MUSMCRL 1050 TRAFFIC STOP
181020724753 10-20 17:20 700 PARK ST 1066 CANCEL
181020724776 10-20 17:17 100 BERNARD RD 1050 TRAFFIC STOP
181020724742 10-20 17:15 6000 E MORROW ST 0 63 ARMED DISPUTE
181020724770 10-20 17:14 10000 ATLANTIC BLVD 3 HIT AND RUN CRASH
181020724744 10-20 17:14 10400 OLD ST AUGUSTINE RD 63 DISPUTE
181020724715 10-20 17:14 7200 ADELE CT 64 NOISE COMPLAINT
181020724673 10-20 17:13 900 N ARLINGTON RD 22 DOMESTIC
181020724748 10-20 17:13 BLANDING BLVD AND ARGYLE FOREST BLVD 4 63 CRASH INVOLVING DISPUTE
181020724620 10-20 17:13 800 BERT RD 63 DISPUTE
181020724768 10-20 17:12 11300 HARTS RD 63 DISPUTE
181020724754 10-20 17:09 3600 POST ST 4 AUTO CRASH
181020724764 10-20 17:08 FAIRFAX ST AND W 14TH ST 1050 TRAFFIC STOP
181020724761 10-20 17:08 8000 SOUTHSIDE BLVD 19 ANIMAL INVESTIGATION
181020724760 10-20 17:08 SOUTHSIDE BLVD AND BEACH BLVD 4 53 TRAFFIC CRASH PERSON INJURED
181020724741 10-20 17:08 8600 E BAYMEADOWS RD 27 MENTALLY ILL PERSON
181020724758 10-20 17:07 100 SPRING FOREST AVE 76 ASSIST OTHER AGENCY
181020724759 10-20 17:07 600 RIVERSIDE AVE 38 TRAFFIC ASSIGNMENT
181020724721 10-20 17:06 9800 WINSTON ST 9 THEFT
181020724747 10-20 17:03 2100 EMERSON ST 54 ILLEGALLY PARKED CAR
181020724720 10-20 17:02 800 INWOOD TER 54 ILLEGALLY PARKED CAR
181020724745 10-20 17:01 4400 MONCRIEF RD 68 CON GAME/FLIM FLAM
181020724738 10-20 16:57 2100 EDISON AVE 1066 CANCEL
181020724712 10-20 16:57 BEACH BLVD AND DESALVO RD 63 DISPUTE
181020724733 10-20 16:57 S I95 EXPWY AND EMERSON ST 63 DISPUTE
181020724676 10-20 16:56 HARVARD AVE AND ORTEGA BLVD 73 DRUG INVESTIGATION
181020724737 10-20 16:56 800 MONUMENT RD 76 ASSIST OTHER AGENCY
181020724731 10-20 16:56 8800 ATLANTIC BLVD 0 22 DOMESTIC DISTURBANCE W/WEAPON
181020724718 10-20 16:56 S I295 EXPWY AND TOWN CENTER PKWY 4 AUTO CRASH
181020724735 10-20 16:55 7100 RAMONA BLVD 63 DISPUTE
181020724700 10-20 16:52 1200 LABELLE ST 2288 DOMESTIC DISPUTE WITH/ASSAULT
181020724727 10-20 16:51 W UNIVERSITY BLVD AND CAGLE RD 4 AUTO CRASH
181020724717 10-20 16:51 7800 STEAMBOAT SPRINGS CT 22 DOMESTIC
181020724730 10-20 16:50 100 N JACKSON AVE 4 AUTO CRASH
181020724714 10-20 16:50 8100 METTO RD 63 DISPUTE
181020724724 10-20 16:50 S I95 EXPWY AND W UNIVERSITY BLVD 4 53 TRAFFIC CRASH PERSON INJURED
181020724586 10-20 16:50 5700 ROUND TABLE RD 54 ILLEGALLY PARKED CAR
181020724726 10-20 16:50 500 E BAY ST 37 UNVERIFIED 911 CALL
181020724705 10-20 16:49 1500 FAYE RD 63 DISPUTE
181020724722 10-20 16:49 200 E 1ST ST 63 DISPUTE
181020724689 10-20 16:48 BEACH BLVD AND FOSTER DR 4 63 CRASH INVOLVING DISPUTE
181020724713 10-20 16:48 7600 STRATO RD 63 DISPUTE
181020724719 10-20 16:47 1600 EL CAMINO RD 76 ASSIST OTHER AGENCY
181020724640 10-20 16:46 BARNETT ST AND KINGS RD 63 DISPUTE
181020724716 10-20 16:45 9300 LEM TURNER 1050 TRAFFIC STOP
181020724710 10-20 16:45 VALDURA AVE AND METTO RD 88P ASSAULT IN PROGRESS
181020724711 10-20 16:43 6000 ARGYLE FOREST BLVD 10R VEHICLE THEFT RECOVERY
181020724703 10-20 16:43 2800 SOPHIA ST 0 13 ARMED SUSPICIOUS PERSON
181020724672 10-20 16:42 3500 TOWNSEND BLVD 63 DISPUTE
181020724698 10-20 16:42 1700 RYAR RD 37 UNVERIFIED 911 CALL
181020724684 10-20 16:42 AIRPORT RD AND S I95 EXPWY 3 HIT AND RUN CRASH
181020724706 10-20 16:41 FOURAKER RD AND N OLD MIDDLEBURG RD 1050 TRAFFIC STOP
181020724702 10-20 16:41 3700 BELFORT RD 61 FIGHT
181020724679 10-20 16:41 8400 DELAWARE AVE 1066 CANCEL
181020724667 10-20 16:40 FRIDEN DR AND W KEN KNIGHT DR 64 NOISE COMPLAINT
181020724693 10-20 16:40 800 BROWARD RD 63 DISPUTE
181020724692 10-20 16:39 3800 N MAIN ST 9J THEFT JUST OCCURRED
181020724690 10-20 16:37 700 DAY AVE 22 DOMESTIC
181020724665 10-20 16:37 12900 RIVERMIST WAY 2288 DOMESTIC DISPUTE WITH/ASSAULT
181020724682 10-20 16:36 5300 118TH ST 14RJ VANDALISM RESIDENCE JUST OCCURRED
181020724694 10-20 16:36 N I95 EXPWY AND BOWDEN RD 1050 TRAFFIC STOP
181020724687 10-20 16:33 W EDGEWOOD AVE AND CLEVELAND RD 96 ASSIST MOTORIST
181020724683 10-20 16:32 E 1ST ST AND SPEARING ST 1050 TRAFFIC STOP
181020724647 10-20 16:31 400 FILMORE DR 63 DISPUTE
181020724671 10-20 16:30 3200 HARTLEY RD 63 DISPUTE
181020724674 10-20 16:29 5200 NORMANDY BLVD 63 DISPUTE
181020724678 10-20 16:28 S LANE AVE AND WILSON BLVD 1050 TRAFFIC STOP
181020724677 10-20 16:28 BROWARD RD AND BISCAYNE BLVD 1050 TRAFFIC STOP
181020724666 10-20 16:27 1400 DANCY ST 13 SUSPICIOUS PERSON
181020724669 10-20 16:26 BLANDING BLVD AND N I295 EXPWY 1050 TRAFFIC STOP
181020724668 10-20 16:26 N I95 EXPWY AND J TURNER BUTLER BLVD 1050 TRAFFIC STOP
181020724652 10-20 16:26 1700 W 11TH ST 56 JUVENILE COMPLAINT
181020724664 10-20 16:24 103RD ST AND HARLOW BLVD 1050 TRAFFIC STOP
181020724663 10-20 16:24 6700 103RD ST 9 THEFT
181020724659 10-20 16:23 100 N JULIA ST 63 DISPUTE
181020724616 10-20 16:22 6700 RAMONA BLVD 63 DISPUTE
181020724658 10-20 16:22 8300 NEW KINGS RD 76 ASSIST OTHER AGENCY
181020724656 10-20 16:21 5300 TIMUQUANA RD 63 DISPUTE
181020724629 10-20 16:20 9700 TOUCHTON RD 63 DISPUTE
181020724618 10-20 16:20 3200 FRANKLIN ST 2288 DOMESTIC DISPUTE WITH/ASSAULT
181020724645 10-20 16:20 NAPOLI CT AND PUTNAM AVE 80 PROSTITUTION (ONLY)
181020724654 10-20 16:19 MARTIN LUTHER KING JR PKWY AND E 8TH ST 1050 TRAFFIC STOP
181020724655 10-20 16:19 6300 FEDOR CT 56 JUVENILE COMPLAINT
181020724653 10-20 16:19 6500 YOUNGERMAN CIR 1050 TRAFFIC STOP
181020724651 10-20 16:18 3100 PHILIPS HWY 73 DRUG INVESTIGATION
181020724648 10-20 16:17 2800 SILVER ST 95ID IDENTITY THEFT
181020724646 10-20 16:17 S I95 EXPWY 4 AUTO CRASH
181020724644 10-20 16:16 N MAIN ST AND E 27TH ST 1050 TRAFFIC STOP
181020724641 10-20 16:15 HENDRICKS AVE AND DUNSFORD RD 1050 TRAFFIC STOP
181020724638 10-20 16:15 W 11TH ST AND FAIRFAX ST 19 ANIMAL INVESTIGATION
181020724637 10-20 16:14 700 N LIB 73 DRUG INVESTIGATION
181020724636 10-20 16:14 700 N LIB 73 DRUG INVESTIGATION
181020724635 10-20 16:13 103RD ST AND JAMMES RD 1050 TRAFFIC STOP
181020724628 10-20 16:12 1100 MARBLEHEAD RD 22 DOMESTIC
181020724634 10-20 16:12 FIRESTONE RD AND WILSON BLVD 1050 TRAFFIC STOP
181020724603 10-20 16:12 9500 PHILIPS HWY 13 SUSPICIOUS PERSON
181020724633 10-20 16:12 9100 HIPPS RD 1050 TRAFFIC STOP
181020724630 10-20 16:12 100 W UNION ST 60 SUICIDE OR ATTEMPT
181020724607 10-20 16:12 3600 ROGERO RD 4 AUTO CRASH
181020724632 10-20 16:12 13200 CITY SQUARE DR 96 ASSIST MOTORIST
181020724631 10-20 16:12 N I95 EXPWY AND PHILIPS HWY 1050 TRAFFIC STOP
181020724627 10-20 16:11 S LANE AVE AND PARK ST 1050 TRAFFIC STOP
181020724626 10-20 16:11 N LIBERTY ST AND E STATE ST 68 CON GAME/FLIM FLAM
181020724624 10-20 16:10 700 N LIBERTY ST 73 DRUG INVESTIGATION
181020724623 10-20 16:10 700 N LIBERTY ST 73 DRUG INVESTIGATION
181020724621 10-20 16:09 6000 ARGYLE FOREST BLVD 4 AUTO CRASH
181020724622 10-20 16:09 95NB/SOUT 1050 TRAFFIC STOP
181020724614 10-20 16:08 1100 PIPPIN ST 21C BURGLARY CONVEYANCE
181020724612 10-20 16:07 10200 BEACH BLVD 1066 CANCEL
181020724598 10-20 16:07 1400 W 7TH ST 63 DISPUTE
181020724617 10-20 16:07 PERIWINKLE DR AND PERIWINKLE CT 1050 TRAFFIC STOP
181020724563 10-20 16:06 3900 LAURIE ST 2 22 DOMESTIC DISTURBANCE
181020724611 10-20 16:05 N I295 EXPWY AND LEM TURNER RD 16 ROAD OBSTRUCTION
181020724613 10-20 16:04 103RD ST AND GREEN FOREST DR 1050 TRAFFIC STOP
181020724610 10-20 16:03 GEMINI RD AND CENTURY 21 DR 1050 TRAFFIC STOP
181020724601 10-20 16:03 10000 ROSEWOOD GLEN LN 22 DOMESTIC
181020724597 10-20 16:02 1400 EASTER ST 63 DISPUTE
181020724575 10-20 16:02 5500 MACY AVE 22 DOMESTIC
181020724606 10-20 16:02 E I10 EXPWY AND S LANE AVE 4 AUTO CRASH
181020724608 10-20 16:02 500 WONDERWOOD DR 76 ASSIST OTHER AGENCY
181020724605 10-20 16:02 1200 LASALLE ST 21C BURGLARY CONVEYANCE
181020724599 10-20 16:01 5800 W UNIVERSITY BLVD 22 DOMESTIC
181020724602 10-20 16:01 10400 BEACH BLVD 4 AUTO CRASH
181020724595 10-20 15:55 N I295 EXPWY AND NORMANDY BLVD 16 ROAD OBSTRUCTION
181020724573 10-20 15:53 MONUMENT RD AND REGENCY SQUARE BLVD 16 ROAD OBSTRUCTION
181020724594 10-20 15:53 1400 N SEAWOLF TRL 56 JUVENILE COMPLAINT
181020724569 10-20 15:53 400 MONUMENT RD 4 AUTO CRASH
181020724557 10-20 15:53 8900 JASPER AVE 22 DOMESTIC
181020724590 10-20 15:52 TAMPICO RD AND N SONORA DR 12 RECKLESS DRIVER
181020724514 10-20 15:52 W EDGEWOOD AVE AND LEM TURNER RD 68 CON GAME/FLIM FLAM
181020724585 10-20 15:50 10400 OLD ST AUGUSTINE RD 63 DISPUTE
181020724588 10-20 15:50 BLANDING BLVD AND COLLINS RD 1050 TRAFFIC STOP
181020724583 10-20 15:48 CASSAT AVE AND HOLLYCREST DR 1050 TRAFFIC STOP
181020724582 10-20 15:47 E 8TH ST AND MARTIN LUTHER KING JR PKWY 1050 TRAFFIC STOP
181020724581 10-20 15:46 N CAHOON RD AND DRIGGERS ST 13 SUSPICIOUS PERSON
181020724511 10-20 15:45 6800 CHAMPLAIN RD 63 DISPUTE
181020724579 10-20 15:45 700 N LIBERTY ST 73 DRUG INVESTIGATION
181020724577 10-20 15:45 100 ICW 12 RECKLESS DRIVER
181020724550 10-20 15:42 MONCRIEF RD AND W 31ST ST 3 HIT AND RUN CRASH
181020724549 10-20 15:40 9200 MERRILL RD 1066 CANCEL
181020724562 10-20 15:40 4000 TOWN CENTER PKWY 9T THEFT (TELESERVE)
181020724555 10-20 15:40 8600 GALVESTON AVE 63 DISPUTE
181020724568 10-20 15:39 MCCOR/KERN 4 AUTO CRASH
181020724567 10-20 15:38 DEBUTANTE DR AND ATLANTIC BLVD 1050 TRAFFIC STOP
181020724491 10-20 15:38 500 W 49TH ST 63 DISPUTE
181020724566 10-20 15:36 GEMINI RD AND CENTURY 21 DR 1050 TRAFFIC STOP
181020724565 10-20 15:36 PEARL/25TH 1050 TRAFFIC STOP
181020724533 10-20 15:35 2100 LEONID RD 2 63 DISPUTE IMPAIRED/INTOXICATED
181020724554 10-20 15:35 N MAIN ST AND W 48TH ST 4 AUTO CRASH
181020724553 10-20 15:34 N LIBERTY ST AND MARTIN LUTHER KING JR PKWY 4 53 TRAFFIC CRASH PERSON INJURED
181020724515 10-20 15:32 5400 BEACH BLVD 63 DISPUTE
181020724490 10-20 15:32 1500 DUNSFORD RD 1 4 CRASH W/IMPAIRED/DRUNK DRIVER
181020724539 10-20 15:32 8400 ATLANTIC BLVD 63 DISPUTE
181020724505 10-20 15:31 3500 NANCY ST 2288 DOMESTIC DISPUTE WITH/ASSAULT
181020724483 10-20 15:31 13000 GRAN BAY PKWY 63 DISPUTE
181020724484 10-20 15:31 4200 PACKARD DR 21C BURGLARY CONVEYANCE
181020724537 10-20 15:31 6000 E MORROW ST 13 SUSPICIOUS PERSON
181020724447 10-20 15:31 5400 MAYS DR 1066 CANCEL
181020724548 10-20 15:30 W 25TH ST AND N PEARL ST 1050 TRAFFIC STOP
181020724547 10-20 15:30 BUFFALO AVE AND E 47TH ST 1050 TRAFFIC STOP
181020724541 10-20 15:28 PARK ST AND JAMES ST 4 53 TRAFFIC CRASH PERSON INJURED
181020724467 10-20 15:28 6600 BEACH BLVD 63 DISPUTE
181020724525 10-20 15:28 10100 HECKSCHER DR 4 AUTO CRASH
181020724532 10-20 15:28 E 19TH ST AND N MAIN ST 54 ILLEGALLY PARKED CAR
181020724526 10-20 15:27 6500 MITFORD RD 22 DOMESTIC
181020724536 10-20 15:26 DAVIS/18TH 1050 TRAFFIC STOP
181020724535 10-20 15:25 700 CENTURY 21 DR 1050 TRAFFIC STOP
181020724503 10-20 15:25 1200 MEMORIAL PARK RD 4 AUTO CRASH
181020724498 10-20 15:25 300 CARAVAN CIR 19 ANIMAL INVESTIGATION
181020724448 10-20 15:25 11200 SILVER KEY DR 22 DOMESTIC
181020724415 10-20 15:24 5000 CLEVELAND RD 2288 DOMESTIC DISPUTE WITH/ASSAULT
181020724518 10-20 15:24 6800 NORMANDY BLVD 37 UNVERIFIED 911 CALL
181020724527 10-20 15:23 600 N CHAFFEE RD 1050 TRAFFIC STOP
181020724519 10-20 15:23 S I295 EXPWY AND BAYMEADOWS RD 4 AUTO CRASH
181020724524 10-20 15:21 E 26TH ST AND PHOENIX AVE 1050 TRAFFIC STOP
181020724522 10-20 15:20 SAN JUAN AVE AND JAMMES RD 1050 TRAFFIC STOP
181020724516 10-20 15:19 N CAHOON RD AND OLD PLANK RD 13 SUSPICIOUS PERSON
181020724517 10-20 15:18 3200 UNIVERSITY BLVD 60 SUICIDE OR ATTEMPT
181020724494 10-20 15:17 3000 W 19TH ST 0 73 ARMED DRUG ACTIVITY
181020724495 10-20 15:16 7200 ATLANTIC BLVD 63 DISPUTE
181020724501 10-20 15:16 GATE PKWY AND TOWN CENTER PKWY 68 CON GAME/FLIM FLAM
181020724510 10-20 15:14 W I10 EXPWY AND S US 301 HWY 76 ASSIST OTHER AGENCY
181020724509 10-20 15:14 16TH/N MAIN 1050 TRAFFIC STOP
181020724507 10-20 15:13 1100 WOODRUFF AVE 61 FIGHT
181020724496 10-20 15:12 N I95 EXPWY AND PECAN PARK RD 16 ROAD OBSTRUCTION
181020724492 10-20 15:11 10000 SAN JOSE BLVD 63 DISPUTE
181020724502 10-20 15:11 WIGMORE ST AND SLONE ST 1050 TRAFFIC STOP
181020724469 10-20 15:10 200 E STATE ST 63 DISPUTE
181020724500 10-20 15:10 1700 KINGS RD 16 ROAD OBSTRUCTION
181020724463 10-20 15:09 10100 BAYMEADOWS RD 21CT BURGLARY CONVEYANCE TELESERVE
181020724488 10-20 15:08 8900 JASPER AVE 63 DISPUTE
181020724493 10-20 15:07 BERRY AVE AND N BOWLAN ST 13 SUSPICIOUS PERSON
181020724487 10-20 15:07 1800 DUNN AVE 4 AUTO CRASH
181020724437 10-20 15:06 6700 DUNN AVE 4 AUTO CRASH
181020724454 10-20 15:06 5300 ARLINGTON EXPWY 63 DISPUTE
181020724476 10-20 15:04 3500 LENOX AVE 37 UNVERIFIED 911 CALL
181020724478 10-20 15:02 MERRILL RD AND WOMPI DR 4 AUTO CRASH
181020724477 10-20 15:02 4400 TOWN CENTER PKWY 4 AUTO CRASH
181020724475 10-20 15:02 8200 BARRACUDA RD 1066 CANCEL
181020724482 10-20 15:02 8700 N STAR LEAF RD 22 DOMESTIC
181020724485 10-20 15:01 300 PALMETTO ST 52 ILLEGAL DUMPING
181020724470 10-20 15:01 1400 ALETHA DR 19 ANIMAL INVESTIGATION